Wetterdaten: Freitag, 14.06.2019
Datum Zeit Temp. Aussen Temp. o. S. +5cm Feuchte Auss Luftdruck Regen Sonnenschein Regendauer Solar Windben Empfang
14.06.2019 00:00 16,3 C 15,0 C 15,0 C 78 % 1014,4 hPa 0,0 l/m 0 min 2 min 0 W/m 3,2 km/h (1 Bft) 95,74 %
14.06.2019 00:02 16,3 C 15,0 C 14,4 C 78 % 1014,3 hPa 0,0 l/m 0 min 2 min 0 W/m 0,0 km/h (0 Bft) 10,00 %
14.06.2019 00:04 16,3 C 15,0 C 14,4 C 78 % 1014,4 hPa 0,0 l/m 0 min 2 min 0 W/m 0,0 km/h (0 Bft) 90,91 %
14.06.2019 00:08 16,3 C 14,4 C 14,4 C 79 % 1014,5 hPa 0,0 l/m 0 min 4 min 0 W/m 0,0 km/h (0 Bft) 97,85 %
14.06.2019 00:10 16,3 C 13,9 C 13,9 C 79 % 1014,7 hPa 0,0 l/m 0 min 2 min 0 W/m 3,2 km/h (1 Bft) 95,74 %
14.06.2019 00:12 16,3 C 13,9 C 13,9 C 79 % 1014,9 hPa 0,0 l/m 0 min 2 min 0 W/m 3,2 km/h (1 Bft) 95,74 %
14.06.2019 00:14 16,3 C 13,3 C 13,9 C 80 % 1014,8 hPa 0,2 l/m 0 min 2 min 0 W/m 3,2 km/h (1 Bft) 95,74 %
14.06.2019 00:16 16,3 C 13,3 C 13,3 C 80 % 1014,8 hPa 0,4 l/m 0 min 2 min 0 W/m 0,0 km/h (0 Bft) 97,87 %
14.06.2019 00:18 16,3 C 12,8 C 12,8 C 82 % 1014,6 hPa 0,4 l/m 0 min 2 min 0 W/m 0,0 km/h (0 Bft) 97,83 %
14.06.2019 00:20 16,2 C 12,8 C 12,8 C 82 % 1014,7 hPa 0,4 l/m 0 min 2 min 0 W/m 0,0 km/h (0 Bft) 97,87 %
14.06.2019 00:22 16,2 C 12,8 C 12,8 C 82 % 1014,6 hPa 0,0 l/m 0 min 2 min 0 W/m 0,0 km/h (0 Bft) 97,87 %
14.06.2019 00:24 16,2 C 12,8 C 12,8 C 83 % 1014,7 hPa 0,0 l/m 0 min 2 min 0 W/m 0,0 km/h (0 Bft) 95,74 %
14.06.2019 00:26 16,2 C 12,8 C 12,8 C 83 % 1014,8 hPa 0,0 l/m 0 min 2 min 0 W/m 0,0 km/h (0 Bft) 95,74 %
14.06.2019 00:28 16,2 C 12,8 C 12,8 C 83 % 1014,7 hPa 0,0 l/m 0 min 2 min 0 W/m 0,0 km/h (0 Bft) 97,83 %
14.06.2019 00:30 16,2 C 12,8 C 12,8 C 83 % 1014,3 hPa 0,2 l/m 0 min 2 min 0 W/m 3,2 km/h (1 Bft) 100,00 %
14.06.2019 00:32 16,1 C 12,8 C 12,8 C 84 % 1014,5 hPa 0,0 l/m 0 min 2 min 0 W/m 0,0 km/h (0 Bft) 100,00 %
14.06.2019 00:34 16,1 C 12,8 C 12,8 C 84 % 1014,8 hPa 0,0 l/m 0 min 2 min 0 W/m 0,0 km/h (0 Bft) 97,87 %
14.06.2019 00:36 16,1 C 12,8 C 12,8 C 85 % 1014,6 hPa 0,0 l/m 0 min 0 min 0 W/m 3,2 km/h (1 Bft) 100,00 %
14.06.2019 00:38 16,0 C 12,8 C 12,8 C 85 % 1014,6 hPa 0,0 l/m 0 min 0 min 0 W/m 3,2 km/h (1 Bft) 97,87 %
14.06.2019 00:40 15,9 C 12,8 C 12,8 C 85 % 1014,6 hPa 0,2 l/m 0 min 2 min 0 W/m 0,0 km/h (0 Bft) 100,00 %
14.06.2019 00:42 15,9 C 12,8 C 12,8 C 85 % 1014,4 hPa 0,0 l/m 0 min 2 min 0 W/m 0,0 km/h (0 Bft) 100,00 %
14.06.2019 00:44 15,9 C 12,8 C 12,8 C 85 % 1014,5 hPa 0,0 l/m 0 min 2 min 0 W/m 0,0 km/h (0 Bft) 100,00 %
14.06.2019 00:46 15,8 C 12,8 C 12,8 C 85 % 1014,5 hPa 0,0 l/m 0 min 0 min 0 W/m 0,0 km/h (0 Bft) 97,87 %
14.06.2019 00:48 15,8 C 12,8 C 12,8 C 86 % 1014,5 hPa 0,0 l/m 0 min 0 min 0 W/m 0,0 km/h (0 Bft) 97,87 %
14.06.2019 00:50 15,7 C 12,8 C 12,8 C 86 % 1014,4 hPa 0,0 l/m 0 min 0 min 0 W/m 0,0 km/h (0 Bft) 97,87 %
14.06.2019 00:52 15,7 C 12,2 C 12,8 C 86 % 1014,5 hPa 0,0 l/m 0 min 0 min 0 W/m 0,0 km/h (0 Bft) 97,83 %
14.06.2019 00:54 15,6 C 12,2 C 12,2 C 86 % 1014,5 hPa 0,0 l/m 0 min 0 min 0 W/m 0,0 km/h (0 Bft) 95,74 %
14.06.2019 00:56 15,6 C 12,2 C 12,2 C 86 % 1014,4 hPa 0,0 l/m 0 min 0 min 0 W/m 0,0 km/h (0 Bft) 97,87 %
14.06.2019 00:58 15,5 C 12,2 C 12,2 C 86 % 1014,3 hPa 0,0 l/m 0 min 2 min 0 W/m 0,0 km/h (0 Bft) 95,74 %
14.06.2019 01:00 15,4 C 12,2 C 12,2 C 87 % 1014,3 hPa 0,0 l/m 0 min 2 min 0 W/m 0,0 km/h (0 Bft) 97,87 %
14.06.2019 01:02 15,4 C 12,2 C 12,2 C 87 % 1014,4 hPa 0,0 l/m 0 min 0 min 0 W/m 0,0 km/h (0 Bft) 97,87 %
14.06.2019 01:04 15,3 C 12,2 C 12,2 C 87 % 1014,4 hPa 0,0 l/m 0 min 0 min 0 W/m 0,0 km/h (0 Bft) 97,83 %
14.06.2019 01:06 15,3 C 12,2 C 12,2 C 87 % 1014,4 hPa 0,0 l/m 0 min 0 min 0 W/m 0,0 km/h (0 Bft) 97,87 %
14.06.2019 01:08 15,2 C 12,2 C 12,2 C 87 % 1014,5 hPa 0,0 l/m 0 min 0 min 0 W/m 0,0 km/h (0 Bft) 93,62 %
14.06.2019 01:10 15,1 C 12,2 C 12,2 C 87 % 1014,4 hPa 0,0 l/m 0 min 0 min 0 W/m 0,0 km/h (0 Bft) 97,87 %
14.06.2019 01:12 15,1 C 12,2 C 12,2 C 87 % 1014,4 hPa 0,0 l/m 0 min 0 min 0 W/m 6,4 km/h (2 Bft) 95,74 %
14.06.2019 01:14 15,0 C 12,2 C 12,2 C 87 % 1014,4 hPa 0,0 l/m 0 min 0 min 0 W/m 3,2 km/h (1 Bft) 97,87 %
14.06.2019 01:16 14,9 C 12,2 C 12,2 C 87 % 1014,4 hPa 0,0 l/m 0 min 0 min 0 W/m 3,2 km/h (1 Bft) 97,83 %
14.06.2019 01:18 14,9 C 12,2 C 12,2 C 87 % 1014,4 hPa 0,0 l/m 0 min 0 min 0 W/m 3,2 km/h (1 Bft) 97,87 %
14.06.2019 01:20 14,8 C 12,2 C 12,2 C 88 % 1014,4 hPa 0,0 l/m 0 min 0 min 0 W/m 6,4 km/h (2 Bft) 97,87 %
14.06.2019 01:22 14,8 C 12,2 C 12,2 C 88 % 1014,3 hPa 0,0 l/m 0 min 0 min 0 W/m 3,2 km/h (1 Bft) 97,87 %
14.06.2019 01:24 14,7 C 12,2 C 12,2 C 88 % 1014,4 hPa 0,0 l/m 0 min 0 min 0 W/m 6,4 km/h (2 Bft) 97,87 %
14.06.2019 01:26 14,6 C 12,8 C 12,2 C 88 % 1014,3 hPa 0,0 l/m 0 min 0 min 0 W/m 12,9 km/h (3 Bft) 97,87 %
14.06.2019 01:28 14,6 C 12,8 C 12,2 C 88 % 1014,3 hPa 0,0 l/m 0 min 0 min 0 W/m 6,4 km/h (2 Bft) 97,83 %
14.06.2019 01:30 14,4 C 12,8 C 12,2 C 89 % 1014,3 hPa 0,0 l/m 0 min 0 min 0 W/m 3,2 km/h (1 Bft) 95,74 %
14.06.2019 01:32 14,4 C 12,2 C 12,2 C 89 % 1014,3 hPa 0,0 l/m 0 min 0 min 0 W/m 3,2 km/h (1 Bft) 97,87 %
14.06.2019 01:34 14,4 C 12,2 C 12,2 C 89 % 1014,3 hPa 0,0 l/m 0 min 0 min 0 W/m 3,2 km/h (1 Bft) 97,87 %
14.06.2019 01:36 14,3 C 12,2 C 12,2 C 89 % 1014,3 hPa 0,0 l/m 0 min 0 min 0 W/m 0,0 km/h (0 Bft) 95,74 %
14.06.2019 01:38 14,3 C 12,2 C 11,7 C 89 % 1014,2 hPa 0,0 l/m 0 min 0 min 0 W/m 0,0 km/h (0 Bft) 100,00 %
14.06.2019 01:40 14,2 C 12,2 C 11,7 C 89 % 1014,2 hPa 0,0 l/m 0 min 0 min 0 W/m 0,0 km/h (0 Bft) 100,00 %
14.06.2019 01:42 14,2 C 12,2 C 11,7 C 89 % 1014,2 hPa 0,0 l/m 0 min 0 min 0 W/m 0,0 km/h (0 Bft) 100,00 %
14.06.2019 01:44 14,2 C 12,2 C 11,7 C 89 % 1014,2 hPa 0,0 l/m 0 min 0 min 0 W/m 3,2 km/h (1 Bft) 100,00 %
14.06.2019 01:46 14,2 C 12,2 C 11,7 C 89 % 1014,2 hPa 0,0 l/m 0 min 0 min 0 W/m 0,0 km/h (0 Bft) 100,00 %
14.06.2019 01:48 14,2 C 12,2 C 11,7 C 89 % 1014,1 hPa 0,0 l/m 0 min 0 min 0 W/m 0,0 km/h (0 Bft) 100,00 %
14.06.2019 01:50 14,2 C 12,2 C 11,7 C 89 % 1014,2 hPa 0,0 l/m 0 min 0 min 0 W/m 0,0 km/h (0 Bft) 100,00 %
14.06.2019 01:52 14,2 C 12,2 C 11,7 C 90 % 1014,1 hPa 0,0 l/m 0 min 0 min 0 W/m 0,0 km/h (0 Bft) 100,00 %
14.06.2019 01:54 14,2 C 11,7 C 11,7 C 90 % 1014,2 hPa 0,0 l/m 0 min 0 min 0 W/m 0,0 km/h (0 Bft) 100,00 %
14.06.2019 01:56 14,1 C 11,7 C 11,7 C 89 % 1014,1 hPa 0,0 l/m 0 min 0 min 0 W/m 0,0 km/h (0 Bft) 100,00 %
14.06.2019 01:58 14,1 C 11,7 C 11,1 C 89 % 1014,1 hPa 0,0 l/m 0 min 0 min 0 W/m 0,0 km/h (0 Bft) 97,87 %
14.06.2019 02:00 14,0 C 11,7 C 11,1 C 89 % 1014,1 hPa 0,0 l/m 0 min 0 min 0 W/m 0,0 km/h (0 Bft) 97,87 %
14.06.2019 02:02 13,9 C 11,7 C 11,1 C 89 % 1014,1 hPa 0,0 l/m 0 min 0 min 0 W/m 3,2 km/h (1 Bft) 97,83 %
14.06.2019 02:04 13,9 C 11,7 C 11,1 C 89 % 1014,1 hPa 0,0 l/m 0 min 0 min 0 W/m 3,2 km/h (1 Bft) 100,00 %
14.06.2019 02:06 13,9 C 11,7 C 11,7 C 89 % 1014,1 hPa 0,0 l/m 0 min 0 min 0 W/m 0,0 km/h (0 Bft) 95,74 %
14.06.2019 02:08 13,9 C 11,7 C 11,7 C 90 % 1014,1 hPa 0,0 l/m 0 min 0 min 0 W/m 3,2 km/h (1 Bft) 97,87 %
14.06.2019 02:10 13,8 C 11,7 C 11,7 C 90 % 1014,2 hPa 0,0 l/m 0 min 0 min 0 W/m 3,2 km/h (1 Bft) 97,87 %
14.06.2019 02:12 13,8 C 12,2 C 11,7 C 90 % 1014,2 hPa 0,0 l/m 0 min 0 min 0 W/m 6,4 km/h (2 Bft) 95,74 %
14.06.2019 02:14 13,8 C 12,2 C 11,7 C 90 % 1014,2 hPa 0,0 l/m 0 min 0 min 0 W/m 3,2 km/h (1 Bft) 97,83 %
14.06.2019 02:16 13,8 C 12,2 C 11,7 C 90 % 1014,0 hPa 0,0 l/m 0 min 0 min 0 W/m 3,2 km/h (1 Bft) 97,87 %
14.06.2019 02:18 13,7 C 11,7 C 11,7 C 90 % 1014,0 hPa 0,0 l/m 0 min 0 min 0 W/m 0,0 km/h (0 Bft) 95,74 %
14.06.2019 02:20 13,7 C 11,7 C 11,7 C 90 % 1014,0 hPa 0,0 l/m 0 min 0 min 0 W/m 0,0 km/h (0 Bft) 97,87 %
14.06.2019 02:22 13,7 C 11,7 C 11,7 C 91 % 1014,0 hPa 0,0 l/m 0 min 0 min 0 W/m 0,0 km/h (0 Bft) 97,87 %
14.06.2019 02:24 13,7 C 11,7 C 11,1 C 91 % 1014,0 hPa 0,0 l/m 0 min 0 min 0 W/m 0,0 km/h (0 Bft) 97,87 %
14.06.2019 02:26 13,6 C 11,1 C 11,1 C 91 % 1014,1 hPa 0,0 l/m 0 min 0 min 0 W/m 0,0 km/h (0 Bft) 97,83 %
14.06.2019 02:28 13,6 C 11,7 C 11,1 C 91 % 1014,1 hPa 0,0 l/m 0 min 0 min 0 W/m 0,0 km/h (0 Bft) 95,74 %
14.06.2019 02:30 13,6 C 11,7 C 11,1 C 91 % 1014,1 hPa 0,0 l/m 0 min 0 min 0 W/m 0,0 km/h (0 Bft) 97,87 %
14.06.2019 02:32 13,6 C 11,7 C 11,1 C 91 % 1014,1 hPa 0,0 l/m 0 min 0 min 0 W/m 3,2 km/h (1 Bft) 97,87 %
14.06.2019 02:34 13,5 C 11,7 C 11,7 C 91 % 1014,0 hPa 0,0 l/m 0 min 0 min 0 W/m 0,0 km/h (0 Bft) 97,87 %
14.06.2019 02:36 13,5 C 11,7 C 11,1 C 91 % 1013,9 hPa 0,0 l/m 0 min 0 min 0 W/m 0,0 km/h (0 Bft) 97,87 %
14.06.2019 02:38 13,4 C 11,1 C 11,1 C 91 % 1013,8 hPa 0,0 l/m 0 min 0 min 0 W/m 0,0 km/h (0 Bft) 100,00 %
14.06.2019 02:40 13,4 C 11,1 C 11,1 C 91 % 1013,8 hPa 0,0 l/m 0 min 0 min 0 W/m 0,0 km/h (0 Bft) 97,87 %
14.06.2019 02:42 13,4 C 11,1 C 10,6 C 91 % 1013,8 hPa 0,0 l/m 0 min 0 min 0 W/m 0,0 km/h (0 Bft) 95,74 %
14.06.2019 02:44 13,4 C 11,1 C 10,6 C 91 % 1013,9 hPa 0,0 l/m 0 min 0 min 0 W/m 0,0 km/h (0 Bft) 97,87 %
14.06.2019 02:46 13,3 C 11,1 C 10,6 C 91 % 1013,9 hPa 0,0 l/m 0 min 0 min 0 W/m 3,2 km/h (1 Bft) 97,87 %
14.06.2019 02:48 13,3 C 11,1 C 11,1 C 91 % 1013,9 hPa 0,0 l/m 0 min 0 min 0 W/m 0,0 km/h (0 Bft) 97,83 %
14.06.2019 02:50 13,3 C 11,1 C 11,1 C 91 % 1013,7 hPa 0,0 l/m 0 min 0 min 0 W/m 0,0 km/h (0 Bft) 97,87 %
14.06.2019 02:52 13,2 C 11,1 C 10,6 C 91 % 1013,7 hPa 0,0 l/m 0 min 0 min 0 W/m 0,0 km/h (0 Bft) 100,00 %
14.06.2019 02:54 13,2 C 11,1 C 10,6 C 91 % 1013,6 hPa 0,0 l/m 0 min 0 min 0 W/m 0,0 km/h (0 Bft) 100,00 %
14.06.2019 02:56 13,2 C 10,6 C 10,6 C 91 % 1013,7 hPa 0,0 l/m 0 min 0 min 0 W/m 0,0 km/h (0 Bft) 100,00 %
14.06.2019 02:58 13,1 C 10,6 C 10,6 C 91 % 1013,7 hPa 0,0 l/m 0 min 0 min 0 W/m 0,0 km/h (0 Bft) 100,00 %
14.06.2019 03:00 13,1 C 10,6 C 10,6 C 91 % 1013,7 hPa 0,0 l/m 0 min 0 min 0 W/m 0,0 km/h (0 Bft) 97,83 %
14.06.2019 03:04 13,0 C 10,6 C 10,6 C 91 % 1013,7 hPa 0,0 l/m 0 min 0 min 0 W/m 0,0 km/h (0 Bft) 97,89 %
14.06.2019 03:06 13,0 C 10,6 C 10,6 C 91 % 1013,7 hPa 0,0 l/m 0 min 0 min 0 W/m 0,0 km/h (0 Bft) 93,62 %
14.06.2019 03:08 12,9 C 10,6 C 10,6 C 91 % 1013,7 hPa 0,0 l/m 0 min 0 min 0 W/m 0,0 km/h (0 Bft) 91,49 %
14.06.2019 03:10 12,9 C 10,6 C 10,6 C 91 % 1013,7 hPa 0,0 l/m 0 min 0 min 0 W/m 0,0 km/h (0 Bft) 97,87 %
14.06.2019 03:12 12,9 C 10,6 C 10,6 C 91 % 1013,7 hPa 0,0 l/m 0 min 0 min 0 W/m 0,0 km/h (0 Bft) 97,83 %
14.06.2019 03:14 12,8 C 10,6 C 10,6 C 91 % 1013,7 hPa 0,0 l/m 0 min 0 min 0 W/m 0,0 km/h (0 Bft) 100,00 %
14.06.2019 03:16 12,8 C 10,6 C 10,0 C 91 % 1013,7 hPa 0,0 l/m 0 min 0 min 0 W/m 0,0 km/h (0 Bft) 97,87 %
14.06.2019 03:18 12,7 C 10,6 C 10,0 C 91 % 1013,7 hPa 0,0 l/m 0 min 0 min 0 W/m 0,0 km/h (0 Bft) 97,87 %
14.06.2019 03:20 12,7 C 10,0 C 10,0 C 91 % 1013,6 hPa 0,0 l/m 0 min 0 min 0 W/m 0,0 km/h (0 Bft) 95,74 %
14.06.2019 03:22 12,7 C 10,0 C 10,0 C 91 % 1013,6 hPa 0,0 l/m 0 min 0 min 0 W/m 0,0 km/h (0 Bft) 97,87 %
14.06.2019 03:24 12,6 C 10,0 C 10,0 C 91 % 1013,5 hPa 0,0 l/m 0 min 0 min 0 W/m 0,0 km/h (0 Bft) 97,83 %
14.06.2019 03:26 12,6 C 10,0 C 10,0 C 91 % 1013,6 hPa 0,0 l/m 0 min 0 min 0 W/m 0,0 km/h (0 Bft) 97,87 %
14.06.2019 03:28 12,6 C 10,0 C 10,0 C 91 % 1013,6 hPa 0,0 l/m 0 min 0 min 0 W/m 0,0 km/h (0 Bft) 97,87 %
14.06.2019 03:30 12,5 C 10,0 C 10,0 C 91 % 1013,6 hPa 0,0 l/m 0 min 0 min 0 W/m 0,0 km/h (0 Bft) 97,87 %
14.06.2019 03:32 12,4 C 10,0 C 10,0 C 91 % 1013,6 hPa 0,0 l/m 0 min 0 min 0 W/m 0,0 km/h (0 Bft) 97,87 %
14.06.2019 03:34 12,4 C 10,0 C 10,0 C 91 % 1013,6 hPa 0,0 l/m 0 min 0 min 0 W/m 0,0 km/h (0 Bft) 97,87 %
14.06.2019 03:36 12,4 C 10,0 C 10,0 C 91 % 1013,6 hPa 0,0 l/m 0 min 0 min 0 W/m 0,0 km/h (0 Bft) 93,48 %
14.06.2019 03:38 12,3 C 10,0 C 10,0 C 91 % 1013,6 hPa 0,0 l/m 0 min 0 min 0 W/m 0,0 km/h (0 Bft) 97,87 %
14.06.2019 03:40 12,3 C 10,0 C 10,0 C 91 % 1013,5 hPa 0,0 l/m 0 min 0 min 0 W/m 0,0 km/h (0 Bft) 54,35 %
14.06.2019 03:42 12,3 C 10,0 C 10,0 C 91 % 1013,5 hPa 0,0 l/m 0 min 0 min 0 W/m 0,0 km/h (0 Bft) 89,66 %
14.06.2019 03:44 12,2 C 10,0 C 10,0 C 91 % 1013,5 hPa 0,0 l/m 0 min 0 min 0 W/m 0,0 km/h (0 Bft) 97,87 %
14.06.2019 03:46 12,2 C 10,0 C 10,0 C 91 % 1013,6 hPa 0,0 l/m 0 min 0 min 0 W/m 0,0 km/h (0 Bft) 97,83 %
14.06.2019 03:48 12,2 C 10,6 C 10,0 C 91 % 1013,6 hPa 0,0 l/m 0 min 0 min 0 W/m 3,2 km/h (1 Bft) 95,74 %
14.06.2019 03:50 12,2 C 10,6 C 10,6 C 91 % 1013,6 hPa 0,0 l/m 0 min 0 min 0 W/m 3,2 km/h (1 Bft) 95,74 %
14.06.2019 03:52 12,2 C 10,6 C 10,6 C 91 % 1013,6 hPa 0,2 l/m 0 min 0 min 0 W/m 0,0 km/h (0 Bft) 95,74 %
14.06.2019 03:54 12,2 C 10,6 C 10,6 C 91 % 1013,6 hPa 0,0 l/m 0 min 0 min 0 W/m 0,0 km/h (0 Bft) 93,62 %
14.06.2019 03:56 12,2 C 10,6 C 10,6 C 92 % 1013,6 hPa 0,0 l/m 0 min 0 min 0 W/m 0,0 km/h (0 Bft) 93,62 %
14.06.2019 03:58 12,1 C 10,6 C 10,6 C 92 % 1013,6 hPa 0,0 l/m 0 min 0 min 0 W/m 3,2 km/h (1 Bft) 91,49 %
14.06.2019 04:00 12,1 C 10,6 C 10,6 C 92 % 1013,5 hPa 0,0 l/m 0 min 0 min 0 W/m 0,0 km/h (0 Bft) 95,65 %
14.06.2019 04:02 12,1 C 11,1 C 10,6 C 92 % 1013,5 hPa 0,0 l/m 0 min 0 min 0 W/m 0,0 km/h (0 Bft) 100,00 %
14.06.2019 04:04 12,1 C 11,1 C 10,6 C 92 % 1013,6 hPa 0,0 l/m 0 min 0 min 0 W/m 0,0 km/h (0 Bft) 95,74 %
14.06.2019 04:06 12,1 C 11,1 C 10,6 C 92 % 1013,5 hPa 0,0 l/m 0 min 0 min 0 W/m 0,0 km/h (0 Bft) 100,00 %
14.06.2019 04:08 12,2 C 11,1 C 10,6 C 92 % 1013,5 hPa 0,0 l/m 0 min 0 min 0 W/m 0,0 km/h (0 Bft) 95,74 %
14.06.2019 04:10 12,2 C 11,1 C 10,6 C 93 % 1013,6 hPa 0,0 l/m 0 min 0 min 0 W/m 0,0 km/h (0 Bft) 95,65 %
14.06.2019 04:12 12,2 C 11,1 C 10,6 C 93 % 1013,6 hPa 0,0 l/m 0 min 0 min 0 W/m 0,0 km/h (0 Bft) 95,74 %
14.06.2019 04:14 12,2 C 11,1 C 10,6 C 93 % 1013,6 hPa 0,0 l/m 0 min 0 min 0 W/m 0,0 km/h (0 Bft) 95,74 %
14.06.2019 04:16 12,2 C 11,1 C 10,6 C 93 % 1013,6 hPa 0,0 l/m 0 min 0 min 0 W/m 0,0 km/h (0 Bft) 93,62 %
14.06.2019 04:18 12,2 C 11,1 C 10,6 C 93 % 1013,6 hPa 0,0 l/m 0 min 0 min 0 W/m 0,0 km/h (0 Bft) 95,74 %
14.06.2019 04:20 12,2 C 11,1 C 10,6 C 93 % 1013,6 hPa 0,0 l/m 0 min 0 min 0 W/m 0,0 km/h (0 Bft) 97,87 %
14.06.2019 04:22 12,2 C 11,1 C 10,6 C 93 % 1013,5 hPa 0,0 l/m 0 min 0 min 0 W/m 0,0 km/h (0 Bft) 95,65 %
14.06.2019 04:24 12,2 C 11,1 C 10,6 C 94 % 1013,5 hPa 0,0 l/m 0 min 0 min 0 W/m 0,0 km/h (0 Bft) 97,87 %
14.06.2019 04:26 12,2 C 11,1 C 10,6 C 94 % 1013,4 hPa 0,0 l/m 0 min 0 min 0 W/m 0,0 km/h (0 Bft) 93,62 %
14.06.2019 04:28 12,2 C 11,1 C 10,6 C 94 % 1013,4 hPa 0,0 l/m 0 min 0 min 0 W/m 0,0 km/h (0 Bft) 93,62 %
14.06.2019 04:30 12,2 C 11,1 C 10,6 C 94 % 1013,4 hPa 0,0 l/m 0 min 0 min 0 W/m 6,4 km/h (2 Bft) 97,87 %
14.06.2019 04:32 12,2 C 11,1 C 10,6 C 94 % 1013,4 hPa 0,0 l/m 0 min 0 min 0 W/m 3,2 km/h (1 Bft) 97,83 %
14.06.2019 04:34 12,2 C 11,1 C 10,6 C 94 % 1013,4 hPa 0,0 l/m 0 min 0 min 0 W/m 3,2 km/h (1 Bft) 95,74 %
14.06.2019 04:36 12,2 C 11,1 C 10,6 C 94 % 1013,4 hPa 0,0 l/m 0 min 0 min 0 W/m 6,4 km/h (2 Bft) 95,74 %
14.06.2019 04:38 12,2 C 11,1 C 10,6 C 94 % 1013,4 hPa 0,0 l/m 0 min 0 min 0 W/m 3,2 km/h (1 Bft) 97,87 %
14.06.2019 04:40 12,2 C 11,1 C 10,6 C 94 % 1013,5 hPa 0,0 l/m 0 min 0 min 0 W/m 0,0 km/h (0 Bft) 95,74 %
14.06.2019 04:42 12,2 C 11,1 C 10,6 C 94 % 1013,4 hPa 0,0 l/m 0 min 0 min 0 W/m 3,2 km/h (1 Bft) 95,74 %
14.06.2019 04:44 12,2 C 11,1 C 10,6 C 94 % 1013,4 hPa 0,0 l/m 0 min 0 min 0 W/m 3,2 km/h (1 Bft) 97,83 %
14.06.2019 04:46 12,3 C 11,1 C 10,6 C 94 % 1013,4 hPa 0,0 l/m 0 min 0 min 0 W/m 3,2 km/h (1 Bft) 97,87 %
14.06.2019 04:48 12,2 C 11,1 C 10,6 C 95 % 1013,4 hPa 0,0 l/m 0 min 0 min 0 W/m 0,0 km/h (0 Bft) 97,87 %
14.06.2019 04:50 12,3 C 11,1 C 10,6 C 95 % 1013,4 hPa 0,0 l/m 0 min 0 min 0 W/m 0,0 km/h (0 Bft) 95,74 %
14.06.2019 04:52 12,2 C 11,1 C 10,6 C 95 % 1013,4 hPa 0,0 l/m 0 min 0 min 0 W/m 0,0 km/h (0 Bft) 97,87 %
14.06.2019 04:54 12,2 C 11,1 C 10,6 C 95 % 1013,5 hPa 0,0 l/m 0 min 0 min 0 W/m 0,0 km/h (0 Bft) 97,87 %
14.06.2019 04:56 12,2 C 11,1 C 10,6 C 95 % 1013,5 hPa 0,0 l/m 0 min 0 min 0 W/m 0,0 km/h (0 Bft) 97,83 %
14.06.2019 04:58 12,2 C 11,1 C 10,6 C 95 % 1013,5 hPa 0,0 l/m 0 min 0 min 0 W/m 0,0 km/h (0 Bft) 97,87 %
14.06.2019 05:00 12,2 C 11,1 C 10,6 C 95 % 1013,5 hPa 0,0 l/m 0 min 0 min 0 W/m 0,0 km/h (0 Bft) 97,87 %
14.06.2019 05:02 12,2 C 11,1 C 10,6 C 95 % 1013,5 hPa 0,0 l/m 0 min 0 min 0 W/m 0,0 km/h (0 Bft) 95,74 %
14.06.2019 05:04 12,2 C 11,1 C 10,6 C 95 % 1013,5 hPa 0,0 l/m 0 min 0 min 0 W/m 0,0 km/h (0 Bft) 97,87 %
14.06.2019 05:06 12,2 C 11,1 C 10,6 C 95 % 1013,6 hPa 0,0 l/m 0 min 0 min 0 W/m 0,0 km/h (0 Bft) 97,87 %
14.06.2019 05:08 12,2 C 11,1 C 10,6 C 95 % 1013,6 hPa 0,0 l/m 0 min 0 min 0 W/m 0,0 km/h (0 Bft) 97,83 %
14.06.2019 05:10 12,2 C 11,1 C 10,6 C 95 % 1013,6 hPa 0,0 l/m 0 min 0 min 0 W/m 0,0 km/h (0 Bft) 97,87 %
14.06.2019 05:12 12,2 C 11,1 C 10,6 C 95 % 1013,6 hPa 0,0 l/m 0 min 0 min 0 W/m 0,0 km/h (0 Bft) 95,74 %
14.06.2019 05:14 12,2 C 11,1 C 10,6 C 95 % 1013,6 hPa 0,0 l/m 0 min 0 min 0 W/m 0,0 km/h (0 Bft) 97,87 %
14.06.2019 05:16 12,2 C 11,1 C 10,6 C 95 % 1013,6 hPa 0,0 l/m 0 min 0 min 0 W/m 0,0 km/h (0 Bft) 97,87 %
14.06.2019 05:18 12,2 C 11,1 C 10,6 C 95 % 1013,6 hPa 0,0 l/m 0 min 0 min 0 W/m 0,0 km/h (0 Bft) 100,00 %
14.06.2019 05:20 12,2 C 11,1 C 10,6 C 95 % 1013,6 hPa 0,0 l/m 0 min 0 min 0 W/m 0,0 km/h (0 Bft) 100,00 %
14.06.2019 05:22 12,2 C 11,1 C 10,6 C 95 % 1013,6 hPa 0,0 l/m 0 min 0 min 0 W/m 0,0 km/h (0 Bft) 100,00 %
14.06.2019 05:24 12,2 C 11,1 C 10,6 C 95 % 1013,7 hPa 0,0 l/m 0 min 0 min 0 W/m 0,0 km/h (0 Bft) 100,00 %
14.06.2019 05:26 12,1 C 11,1 C 10,6 C 95 % 1013,7 hPa 0,0 l/m 0 min 0 min 5 W/m 0,0 km/h (0 Bft) 100,00 %
14.06.2019 05:28 12,2 C 11,1 C 10,6 C 95 % 1013,7 hPa 0,0 l/m 0 min 0 min 6 W/m 0,0 km/h (0 Bft) 95,74 %
14.06.2019 05:30 12,1 C 11,1 C 10,6 C 95 % 1013,7 hPa 0,0 l/m 0 min 0 min 7 W/m 0,0 km/h (0 Bft) 100,00 %
14.06.2019 05:32 12,1 C 11,1 C 10,6 C 95 % 1013,7 hPa 0,0 l/m 0 min 0 min 9 W/m 0,0 km/h (0 Bft) 100,00 %
14.06.2019 05:34 12,1 C 11,1 C 10,6 C 95 % 1013,7 hPa 0,0 l/m 0 min 0 min 10 W/m 0,0 km/h (0 Bft) 100,00 %
14.06.2019 05:36 12,1 C 11,1 C 10,6 C 95 % 1013,7 hPa 0,0 l/m 0 min 0 min 11 W/m 0,0 km/h (0 Bft) 100,00 %
14.06.2019 05:38 12,1 C 11,1 C 10,6 C 95 % 1013,7 hPa 0,0 l/m 0 min 0 min 12 W/m 0,0 km/h (0 Bft) 100,00 %
14.06.2019 05:40 12,1 C 11,1 C 10,6 C 95 % 1013,7 hPa 0,0 l/m 0 min 0 min 12 W/m 0,0 km/h (0 Bft) 100,00 %
14.06.2019 05:42 12,1 C 11,1 C 10,6 C 95 % 1013,7 hPa 0,0 l/m 0 min 0 min 12 W/m 0,0 km/h (0 Bft) 100,00 %
14.06.2019 05:44 12,1 C 11,1 C 10,6 C 95 % 1013,7 hPa 0,0 l/m 0 min 0 min 12 W/m 0,0 km/h (0 Bft) 100,00 %
14.06.2019 05:46 12,1 C 11,1 C 10,6 C 95 % 1013,7 hPa 0,0 l/m 0 min 0 min 14 W/m 0,0 km/h (0 Bft) 100,00 %
14.06.2019 05:48 12,1 C 11,1 C 10,6 C 95 % 1013,7 hPa 0,0 l/m 0 min 0 min 14 W/m 0,0 km/h (0 Bft) 100,00 %
14.06.2019 05:50 12,1 C 11,1 C 10,6 C 95 % 1013,6 hPa 0,0 l/m 0 min 0 min 14 W/m 0,0 km/h (0 Bft) 100,00 %
14.06.2019 05:52 12,1 C 11,1 C 10,6 C 95 % 1013,6 hPa 0,0 l/m 0 min 0 min 14 W/m 0,0 km/h (0 Bft) 100,00 %
14.06.2019 05:54 12,1 C 11,1 C 10,6 C 96 % 1013,6 hPa 0,0 l/m 0 min 0 min 16 W/m 0,0 km/h (0 Bft) 97,83 %
14.06.2019 05:56 12,1 C 11,1 C 10,6 C 96 % 1013,6 hPa 0,0 l/m 0 min 0 min 16 W/m 0,0 km/h (0 Bft) 100,00 %
14.06.2019 05:58 12,1 C 11,1 C 10,6 C 96 % 1013,6 hPa 0,0 l/m 0 min 0 min 17 W/m 0,0 km/h (0 Bft) 100,00 %
14.06.2019 06:00 12,1 C 11,1 C 10,6 C 95 % 1013,6 hPa 0,0 l/m 0 min 0 min 18 W/m 3,2 km/h (1 Bft) 100,00 %
14.06.2019 06:02 12,1 C 11,1 C 10,6 C 96 % 1013,6 hPa 0,0 l/m 0 min 0 min 20 W/m 3,2 km/h (1 Bft) 97,87 %
14.06.2019 06:04 12,1 C 11,1 C 10,6 C 96 % 1013,6 hPa 0,0 l/m 0 min 0 min 22 W/m 3,2 km/h (1 Bft) 100,00 %
14.06.2019 06:08 12,1 C 11,7 C 10,6 C 96 % 1013,6 hPa 0,0 l/m 0 min 0 min 23 W/m 3,2 km/h (1 Bft) 100,00 %
14.06.2019 06:10 12,1 C 11,1 C 10,6 C 96 % 1013,6 hPa 0,0 l/m 0 min 0 min 23 W/m 0,0 km/h (0 Bft) 100,00 %
14.06.2019 06:12 12,1 C 11,1 C 10,6 C 96 % 1013,7 hPa 0,0 l/m 0 min 0 min 23 W/m 6,4 km/h (2 Bft) 100,00 %
14.06.2019 06:14 12,2 C 11,1 C 10,6 C 96 % 1013,6 hPa 0,0 l/m 0 min 0 min 23 W/m 0,0 km/h (0 Bft) 100,00 %
14.06.2019 06:16 12,2 C 11,1 C 10,6 C 96 % 1013,6 hPa 0,0 l/m 0 min 0 min 21 W/m 0,0 km/h (0 Bft) 100,00 %
14.06.2019 06:18 12,2 C 11,7 C 10,6 C 96 % 1013,6 hPa 0,0 l/m 0 min 0 min 21 W/m 6,4 km/h (2 Bft) 100,00 %
14.06.2019 06:20 12,2 C 11,7 C 11,1 C 96 % 1013,7 hPa 0,0 l/m 0 min 0 min 21 W/m 0,0 km/h (0 Bft) 100,00 %
14.06.2019 06:22 12,2 C 11,7 C 11,1 C 96 % 1013,7 hPa 0,0 l/m 0 min 0 min 21 W/m 3,2 km/h (1 Bft) 100,00 %
14.06.2019 06:24 12,2 C 11,7 C 11,1 C 96 % 1013,7 hPa 0,0 l/m 0 min 0 min 22 W/m 0,0 km/h (0 Bft) 100,00 %
14.06.2019 06:26 12,2 C 11,7 C 11,1 C 96 % 1013,7 hPa 0,0 l/m 0 min 0 min 23 W/m 0,0 km/h (0 Bft) 100,00 %
14.06.2019 06:28 12,2 C 11,7 C 11,1 C 96 % 1013,7 hPa 0,0 l/m 0 min 0 min 23 W/m 0,0 km/h (0 Bft) 95,74 %
14.06.2019 06:30 12,2 C 11,7 C 10,6 C 96 % 1013,7 hPa 0,0 l/m 0 min 0 min 23 W/m 3,2 km/h (1 Bft) 100,00 %
14.06.2019 06:32 12,2 C 11,1 C 10,6 C 96 % 1013,6 hPa 0,0 l/m 0 min 0 min 23 W/m 3,2 km/h (1 Bft) 97,87 %
14.06.2019 06:34 12,2 C 11,1 C 10,6 C 96 % 1013,7 hPa 0,0 l/m 0 min 0 min 24 W/m 0,0 km/h (0 Bft) 100,00 %
14.06.2019 06:36 12,2 C 11,7 C 10,6 C 96 % 1013,6 hPa 0,0 l/m 0 min 0 min 24 W/m 0,0 km/h (0 Bft) 97,87 %
14.06.2019 06:38 12,2 C 11,7 C 11,1 C 96 % 1013,6 hPa 0,0 l/m 0 min 0 min 25 W/m 0,0 km/h (0 Bft) 97,87 %
14.06.2019 06:40 12,2 C 11,7 C 10,6 C 96 % 1013,6 hPa 0,0 l/m 0 min 0 min 25 W/m 0,0 km/h (0 Bft) 95,74 %
14.06.2019 06:42 12,2 C 11,7 C 10,6 C 96 % 1013,7 hPa 0,0 l/m 0 min 0 min 27 W/m 0,0 km/h (0 Bft) 100,00 %
14.06.2019 06:44 12,2 C 11,7 C 11,1 C 96 % 1013,7 hPa 0,0 l/m 0 min 0 min 29 W/m 0,0 km/h (0 Bft) 97,87 %
14.06.2019 06:46 12,2 C 11,7 C 11,1 C 96 % 1013,7 hPa 0,0 l/m 0 min 0 min 32 W/m 0,0 km/h (0 Bft) 93,62 %
14.06.2019 06:48 12,2 C 11,7 C 11,1 C 96 % 1013,6 hPa 0,0 l/m 0 min 0 min 34 W/m 3,2 km/h (1 Bft) 97,87 %
14.06.2019 06:50 12,2 C 12,2 C 11,1 C 96 % 1013,7 hPa 0,0 l/m 0 min 0 min 37 W/m 0,0 km/h (0 Bft) 97,87 %
14.06.2019 06:52 12,2 C 12,2 C 11,1 C 96 % 1013,6 hPa 0,0 l/m 0 min 0 min 40 W/m 0,0 km/h (0 Bft) 95,74 %
14.06.2019 06:54 12,2 C 12,2 C 11,1 C 96 % 1013,7 hPa 0,0 l/m 0 min 0 min 40 W/m 3,2 km/h (1 Bft) 95,65 %
14.06.2019 06:56 12,3 C 12,2 C 11,1 C 96 % 1013,6 hPa 0,0 l/m 0 min 0 min 39 W/m 3,2 km/h (1 Bft) 93,62 %
14.06.2019 06:58 12,3 C 12,2 C 11,1 C 96 % 1013,6 hPa 0,0 l/m 0 min 0 min 37 W/m 0,0 km/h (0 Bft) 93,62 %
14.06.2019 07:00 12,3 C 12,2 C 11,1 C 96 % 1013,7 hPa 0,0 l/m 0 min 0 min 35 W/m 3,2 km/h (1 Bft) 95,74 %
14.06.2019 07:02 12,3 C 12,2 C 11,7 C 96 % 1013,6 hPa 0,0 l/m 0 min 0 min 35 W/m 3,2 km/h (1 Bft) 93,62 %
14.06.2019 07:04 12,3 C 12,2 C 11,7 C 96 % 1013,6 hPa 0,0 l/m 0 min 0 min 38 W/m 3,2 km/h (1 Bft) 91,30 %
14.06.2019 07:06 12,4 C 12,2 C 11,7 C 96 % 1013,6 hPa 0,0 l/m 0 min 0 min 41 W/m 6,4 km/h (2 Bft) 95,74 %
14.06.2019 07:08 12,4 C 12,2 C 11,7 C 96 % 1013,6 hPa 0,0 l/m 0 min 0 min 46 W/m 3,2 km/h (1 Bft) 94,29 %
14.06.2019 07:10 12,5 C 12,2 C 11,7 C 97 % 1013,6 hPa 0,0 l/m 0 min 0 min 52 W/m 0,0 km/h (0 Bft) 95,74 %
14.06.2019 07:12 12,5 C 12,8 C 11,7 C 97 % 1013,6 hPa 0,0 l/m 0 min 0 min 53 W/m 6,4 km/h (2 Bft) 91,49 %
14.06.2019 07:14 12,6 C 12,8 C 11,7 C 97 % 1013,7 hPa 0,0 l/m 0 min 0 min 48 W/m 3,2 km/h (1 Bft) 93,62 %
14.06.2019 07:16 12,6 C 12,8 C 11,7 C 97 % 1013,7 hPa 0,0 l/m 0 min 0 min 47 W/m 6,4 km/h (2 Bft) 91,49 %
14.06.2019 07:18 12,6 C 12,8 C 11,7 C 97 % 1013,7 hPa 0,0 l/m 0 min 0 min 49 W/m 3,2 km/h (1 Bft) 93,62 %
14.06.2019 07:20 12,7 C 12,8 C 11,7 C 97 % 1013,7 hPa 0,0 l/m 0 min 0 min 53 W/m 6,4 km/h (2 Bft) 93,48 %
14.06.2019 07:22 12,7 C 12,8 C 11,7 C 97 % 1013,7 hPa 0,0 l/m 0 min 0 min 54 W/m 6,4 km/h (2 Bft) 95,74 %
14.06.2019 07:24 12,7 C 12,8 C 11,7 C 97 % 1013,6 hPa 0,0 l/m 0 min 0 min 58 W/m 6,4 km/h (2 Bft) 95,74 %
14.06.2019 07:26 12,7 C 12,8 C 11,7 C 97 % 1013,6 hPa 0,0 l/m 0 min 0 min 62 W/m 6,4 km/h (2 Bft) 95,74 %
14.06.2019 07:28 12,8 C 12,8 C 12,2 C 97 % 1013,7 hPa 0,0 l/m 0 min 0 min 64 W/m 3,2 km/h (1 Bft) 95,74 %
14.06.2019 07:30 12,8 C 13,3 C 12,2 C 97 % 1013,8 hPa 0,0 l/m 0 min 0 min 67 W/m 6,4 km/h (2 Bft) 95,74 %
14.06.2019 07:32 12,8 C 13,3 C 12,2 C 97 % 1013,8 hPa 0,0 l/m 0 min 0 min 67 W/m 6,4 km/h (2 Bft) 93,48 %
14.06.2019 07:34 12,9 C 13,3 C 12,2 C 97 % 1013,8 hPa 0,0 l/m 0 min 0 min 63 W/m 6,4 km/h (2 Bft) 95,74 %
14.06.2019 07:36 12,9 C 13,3 C 12,2 C 97 % 1013,8 hPa 0,0 l/m 0 min 0 min 60 W/m 0,0 km/h (0 Bft) 91,49 %
14.06.2019 07:38 13,0 C 13,3 C 12,2 C 97 % 1013,9 hPa 0,0 l/m 0 min 0 min 54 W/m 0,0 km/h (0 Bft) 94,34 %
14.06.2019 07:40 13,1 C 13,3 C 12,2 C 97 % 1014,0 hPa 0,0 l/m 0 min 0 min 52 W/m 0,0 km/h (0 Bft) 95,74 %
14.06.2019 07:42 13,1 C 13,3 C 12,2 C 97 % 1013,9 hPa 0,0 l/m 0 min 0 min 54 W/m 0,0 km/h (0 Bft) 95,74 %
14.06.2019 07:44 13,1 C 13,3 C 12,2 C 97 % 1013,9 hPa 0,0 l/m 0 min 0 min 50 W/m 0,0 km/h (0 Bft) 95,74 %
14.06.2019 07:46 13,2 C 13,9 C 12,2 C 97 % 1013,8 hPa 0,0 l/m 0 min 0 min 48 W/m 0,0 km/h (0 Bft) 95,74 %
14.06.2019 07:48 13,2 C 13,9 C 12,2 C 97 % 1013,9 hPa 0,0 l/m 0 min 0 min 46 W/m 0,0 km/h (0 Bft) 97,83 %
14.06.2019 07:50 13,2 C 13,9 C 12,2 C 97 % 1013,8 hPa 0,0 l/m 0 min 0 min 48 W/m 0,0 km/h (0 Bft) 95,74 %
14.06.2019 07:52 13,3 C 14,4 C 12,2 C 97 % 1013,8 hPa 0,0 l/m 0 min 0 min 52 W/m 0,0 km/h (0 Bft) 97,87 %
14.06.2019 07:54 13,3 C 14,4 C 12,2 C 97 % 1013,9 hPa 0,0 l/m 0 min 0 min 48 W/m 0,0 km/h (0 Bft) 97,87 %
14.06.2019 07:56 13,4 C 15,6 C 12,8 C 97 % 1013,9 hPa 0,0 l/m 0 min 0 min 56 W/m 0,0 km/h (0 Bft) 97,87 %
14.06.2019 07:58 13,4 C 17,2 C 12,8 C 96 % 1014,0 hPa 0,0 l/m 0 min 0 min 67 W/m 0,0 km/h (0 Bft) 100,00 %
14.06.2019 08:00 13,4 C 18,9 C 12,8 C 96 % 1014,0 hPa 0,0 l/m 0 min 0 min 77 W/m 0,0 km/h (0 Bft) 97,83 %
14.06.2019 08:02 13,6 C 18,9 C 12,8 C 96 % 1014,0 hPa 0,0 l/m 0 min 0 min 83 W/m 0,0 km/h (0 Bft) 100,00 %
14.06.2019 08:04 13,7 C 19,4 C 12,8 C 97 % 1014,1 hPa 0,0 l/m 0 min 0 min 81 W/m 0,0 km/h (0 Bft) 100,00 %
14.06.2019 08:06 13,8 C 20,0 C 13,3 C 96 % 1014,2 hPa 0,0 l/m 0 min 0 min 81 W/m 0,0 km/h (0 Bft) 100,00 %
14.06.2019 08:08 13,9 C 20,0 C 13,3 C 96 % 1014,2 hPa 0,0 l/m 0 min 0 min 80 W/m 0,0 km/h (0 Bft) 100,00 %
14.06.2019 08:10 14,1 C 20,6 C 13,9 C 97 % 1014,2 hPa 0,0 l/m 0 min 0 min 87 W/m 0,0 km/h (0 Bft) 100,00 %
14.06.2019 08:12 14,2 C 20,6 C 13,9 C 96 % 1014,3 hPa 0,0 l/m 0 min 0 min 81 W/m 0,0 km/h (0 Bft) 97,83 %
14.06.2019 08:14 14,3 C 20,0 C 13,9 C 96 % 1014,2 hPa 0,0 l/m 0 min 0 min 71 W/m 12,9 km/h (3 Bft) 100,00 %
14.06.2019 08:16 14,4 C 19,4 C 14,4 C 96 % 1014,3 hPa 0,0 l/m 0 min 0 min 63 W/m 12,9 km/h (3 Bft) 100,00 %
14.06.2019 08:18 14,6 C 18,9 C 13,9 C 96 % 1014,3 hPa 0,0 l/m 0 min 0 min 53 W/m 9,7 km/h (2 Bft) 100,00 %
14.06.2019 08:20 14,8 C 18,9 C 13,9 C 96 % 1014,3 hPa 0,0 l/m 0 min 0 min 59 W/m 9,7 km/h (2 Bft) 100,00 %
14.06.2019 08:22 14,9 C 20,6 C 14,4 C 95 % 1014,3 hPa 0,0 l/m 0 min 0 min 65 W/m 6,4 km/h (2 Bft) 100,00 %
14.06.2019 08:24 15,1 C 20,6 C 14,4 C 95 % 1014,3 hPa 0,0 l/m 0 min 0 min 73 W/m 9,7 km/h (2 Bft) 100,00 %
14.06.2019 08:26 15,2 C 21,1 C 16,7 C 94 % 1014,3 hPa 0,0 l/m 0 min 0 min 90 W/m 3,2 km/h (1 Bft) 100,00 %
14.06.2019 08:28 15,4 C 22,2 C 18,9 C 94 % 1014,4 hPa 0,0 l/m 0 min 0 min 121 W/m 3,2 km/h (1 Bft) 100,00 %
14.06.2019 08:30 15,6 C 22,2 C 20,0 C 94 % 1014,4 hPa 0,0 l/m 0 min 0 min 164 W/m 9,7 km/h (2 Bft) 100,00 %
14.06.2019 08:32 15,7 C 23,3 C 21,7 C 93 % 1014,4 hPa 0,0 l/m 0 min 0 min 198 W/m 6,4 km/h (2 Bft) 100,00 %
14.06.2019 08:34 15,9 C 23,3 C 21,7 C 93 % 1014,4 hPa 0,0 l/m 0 min 0 min 204 W/m 12,9 km/h (3 Bft) 97,83 %
14.06.2019 08:36 16,1 C 20,6 C 19,4 C 92 % 1014,4 hPa 0,0 l/m 0 min 0 min 197 W/m 16,1 km/h (3 Bft) 97,87 %
14.06.2019 08:38 16,2 C 19,4 C 18,3 C 91 % 1014,4 hPa 0,0 l/m 0 min 0 min 215 W/m 9,7 km/h (2 Bft) 100,00 %
14.06.2019 08:40 16,3 C 19,4 C 17,8 C 90 % 1014,4 hPa 0,0 l/m 0 min 0 min 226 W/m 6,4 km/h (2 Bft) 100,00 %
14.06.2019 08:42 16,4 C 18,3 C 17,2 C 88 % 1014,3 hPa 0,0 l/m 0 min 0 min 227 W/m 12,9 km/h (3 Bft) 100,00 %
14.06.2019 08:44 16,5 C 18,3 C 17,2 C 87 % 1014,3 hPa 0,0 l/m 0 min 0 min 233 W/m 9,7 km/h (2 Bft) 100,00 %
14.06.2019 08:46 16,6 C 18,9 C 17,8 C 86 % 1014,4 hPa 0,0 l/m 0 min 0 min 236 W/m 9,7 km/h (2 Bft) 100,00 %
14.06.2019 08:48 16,7 C 19,4 C 17,8 C 86 % 1014,5 hPa 0,0 l/m 0 min 0 min 230 W/m 12,9 km/h (3 Bft) 100,00 %
14.06.2019 08:50 16,7 C 18,9 C 17,8 C 85 % 1014,4 hPa 0,0 l/m 0 min 0 min 218 W/m 9,7 km/h (2 Bft) 100,00 %
14.06.2019 08:52 16,8 C 18,9 C 17,8 C 84 % 1014,4 hPa 0,0 l/m 0 min 0 min 205 W/m 12,9 km/h (3 Bft) 97,87 %
14.06.2019 08:54 16,9 C 18,3 C 17,2 C 84 % 1014,5 hPa 0,0 l/m 0 min 0 min 167 W/m 9,7 km/h (2 Bft) 100,00 %
14.06.2019 08:56 16,9 C 18,3 C 17,2 C 83 % 1014,6 hPa 0,0 l/m 0 min 0 min 171 W/m 12,9 km/h (3 Bft) 100,00 %
14.06.2019 08:58 16,9 C 19,4 C 18,9 C 82 % 1014,6 hPa 0,0 l/m 0 min 0 min 178 W/m 12,9 km/h (3 Bft) 100,00 %
14.06.2019 09:00 17,0 C 20,6 C 20,0 C 82 % 1014,6 hPa 0,0 l/m 0 min 0 min 202 W/m 16,1 km/h (3 Bft) 100,00 %
14.06.2019 09:02 17,1 C 22,2 C 21,7 C 82 % 1014,6 hPa 0,0 l/m 0 min 0 min 254 W/m 9,7 km/h (2 Bft) 100,00 %
14.06.2019 09:04 17,2 C 23,9 C 22,8 C 82 % 1014,5 hPa 0,0 l/m 2 min 0 min 333 W/m 9,7 km/h (2 Bft) 100,00 %
14.06.2019 09:06 17,3 C 23,3 C 22,8 C 82 % 1014,5 hPa 0,0 l/m 2 min 0 min 392 W/m 9,7 km/h (2 Bft) 97,87 %
14.06.2019 09:08 17,4 C 23,3 C 22,8 C 82 % 1014,5 hPa 0,0 l/m 2 min 0 min 318 W/m 16,1 km/h (3 Bft) 97,96 %
14.06.2019 09:10 17,5 C 22,8 C 22,8 C 81 % 1014,5 hPa 0,0 l/m 2 min 0 min 405 W/m 16,1 km/h (3 Bft) 97,87 %
14.06.2019 09:12 17,6 C 21,1 C 21,1 C 81 % 1014,5 hPa 0,0 l/m 2 min 0 min 316 W/m 9,7 km/h (2 Bft) 95,74 %
14.06.2019 09:14 17,7 C 19,4 C 19,4 C 81 % 1014,5 hPa 0,0 l/m 0 min 0 min 211 W/m 9,7 km/h (2 Bft) 97,83 %
14.06.2019 09:16 17,8 C 18,9 C 18,3 C 80 % 1014,5 hPa 0,0 l/m 0 min 0 min 218 W/m 9,7 km/h (2 Bft) 97,87 %
14.06.2019 09:18 17,8 C 19,4 C 18,9 C 80 % 1014,5 hPa 0,0 l/m 0 min 0 min 264 W/m 9,7 km/h (2 Bft) 97,87 %
14.06.2019 09:20 17,9 C 19,4 C 18,9 C 80 % 1014,6 hPa 0,0 l/m 0 min 0 min 285 W/m 12,9 km/h (3 Bft) 97,87 %
14.06.2019 09:22 17,9 C 20,0 C 18,9 C 80 % 1014,5 hPa 0,0 l/m 2 min 0 min 301 W/m 9,7 km/h (2 Bft) 97,87 %
14.06.2019 09:24 17,9 C 18,9 C 18,3 C 79 % 1014,6 hPa 0,0 l/m 0 min 0 min 251 W/m 9,7 km/h (2 Bft) 97,83 %
14.06.2019 09:26 18,0 C 20,6 C 19,4 C 79 % 1014,6 hPa 0,0 l/m 0 min 0 min 250 W/m 9,7 km/h (2 Bft) 95,74 %
14.06.2019 09:28 18,1 C 21,7 C 20,6 C 79 % 1014,6 hPa 0,0 l/m 2 min 0 min 484 W/m 9,7 km/h (2 Bft) 97,87 %
14.06.2019 09:30 18,1 C 21,1 C 20,6 C 79 % 1014,6 hPa 0,0 l/m 2 min 0 min 335 W/m 9,7 km/h (2 Bft) 97,87 %
14.06.2019 09:32 18,2 C 22,2 C 21,7 C 79 % 1014,7 hPa 0,0 l/m 0 min 0 min 281 W/m 9,7 km/h (2 Bft) 97,87 %
14.06.2019 09:34 18,2 C 21,7 C 21,1 C 79 % 1014,7 hPa 0,0 l/m 2 min 0 min 352 W/m 9,7 km/h (2 Bft) 95,74 %
14.06.2019 09:36 18,3 C 21,1 C 20,6 C 79 % 1014,7 hPa 0,0 l/m 0 min 0 min 222 W/m 9,7 km/h (2 Bft) 97,83 %
14.06.2019 09:38 18,4 C 20,6 C 20,0 C 79 % 1014,7 hPa 0,0 l/m 0 min 0 min 201 W/m 9,7 km/h (2 Bft) 97,87 %
14.06.2019 09:40 18,4 C 21,1 C 20,6 C 78 % 1014,6 hPa 0,0 l/m 0 min 0 min 265 W/m 16,1 km/h (3 Bft) 97,87 %
14.06.2019 09:42 18,5 C 23,3 C 23,3 C 78 % 1014,6 hPa 0,0 l/m 2 min 0 min 562 W/m 9,7 km/h (2 Bft) 97,87 %
14.06.2019 09:44 18,6 C 23,9 C 23,3 C 78 % 1014,8 hPa 0,0 l/m 2 min 0 min 617 W/m 9,7 km/h (2 Bft) 100,00 %
14.06.2019 09:46 18,7 C 25,0 C 24,4 C 78 % 1014,8 hPa 0,0 l/m 2 min 0 min 617 W/m 12,9 km/h (3 Bft) 100,00 %
14.06.2019 09:48 18,8 C 25,0 C 24,4 C 78 % 1014,8 hPa 0,0 l/m 2 min 0 min 615 W/m 9,7 km/h (2 Bft) 100,00 %
14.06.2019 09:50 18,9 C 25,6 C 24,4 C 78 % 1014,7 hPa 0,0 l/m 2 min 0 min 646 W/m 6,4 km/h (2 Bft) 97,87 %
14.06.2019 09:52 19,0 C 24,4 C 23,9 C 78 % 1014,9 hPa 0,0 l/m 2 min 0 min 638 W/m 9,7 km/h (2 Bft) 97,87 %
14.06.2019 09:54 19,1 C 23,3 C 22,8 C 77 % 1015,0 hPa 0,0 l/m 2 min 0 min 498 W/m 12,9 km/h (3 Bft) 97,87 %
14.06.2019 09:56 19,2 C 22,2 C 21,7 C 76 % 1015,0 hPa 0,0 l/m 0 min 0 min 303 W/m 16,1 km/h (3 Bft) 97,87 %
14.06.2019 09:58 19,3 C 22,8 C 22,2 C 76 % 1015,0 hPa 0,0 l/m 2 min 0 min 336 W/m 12,9 km/h (3 Bft) 97,87 %
14.06.2019 10:00 19,4 C 22,8 C 21,7 C 76 % 1015,1 hPa 0,0 l/m 2 min 0 min 336 W/m 9,7 km/h (2 Bft) 97,83 %
14.06.2019 10:02 19,4 C 22,2 C 21,7 C 76 % 1015,1 hPa 0,0 l/m 0 min 0 min 330 W/m 9,7 km/h (2 Bft) 97,87 %
14.06.2019 10:04 19,6 C 23,3 C 22,8 C 77 % 1015,1 hPa 0,0 l/m 0 min 0 min 297 W/m 12,9 km/h (3 Bft) 97,87 %
14.06.2019 10:06 19,6 C 25,0 C 23,9 C 76 % 1015,0 hPa 0,0 l/m 2 min 0 min 655 W/m 9,7 km/h (2 Bft) 95,74 %
14.06.2019 10:08 19,7 C 23,9 C 23,3 C 76 % 1015,0 hPa 0,0 l/m 2 min 0 min 703 W/m 9,7 km/h (2 Bft) 100,00 %
14.06.2019 10:10 19,7 C 22,2 C 22,2 C 74 % 1014,9 hPa 0,0 l/m 2 min 0 min 448 W/m 16,1 km/h (3 Bft) 97,87 %
14.06.2019 10:12 19,8 C 23,3 C 22,2 C 74 % 1015,0 hPa 0,0 l/m 2 min 0 min 442 W/m 12,9 km/h (3 Bft) 97,87 %
14.06.2019 10:14 19,8 C 23,9 C 23,3 C 75 % 1015,0 hPa 0,0 l/m 2 min 0 min 621 W/m 9,7 km/h (2 Bft) 97,83 %
14.06.2019 10:16 19,9 C 24,4 C 23,3 C 75 % 1015,1 hPa 0,0 l/m 2 min 0 min 703 W/m 9,7 km/h (2 Bft) 97,87 %
14.06.2019 10:18 20,0 C 24,4 C 23,3 C 75 % 1015,1 hPa 0,0 l/m 2 min 0 min 652 W/m 9,7 km/h (2 Bft) 97,87 %
14.06.2019 10:20 20,1 C 25,6 C 24,4 C 75 % 1015,1 hPa 0,0 l/m 2 min 0 min 661 W/m 9,7 km/h (2 Bft) 95,74 %
14.06.2019 10:22 20,2 C 25,0 C 24,4 C 74 % 1015,0 hPa 0,0 l/m 2 min 0 min 710 W/m 12,9 km/h (3 Bft) 97,87 %
14.06.2019 10:24 20,2 C 25,0 C 24,4 C 74 % 1015,0 hPa 0,0 l/m 2 min 0 min 655 W/m 16,1 km/h (3 Bft) 97,87 %
14.06.2019 10:26 20,3 C 23,3 C 22,8 C 73 % 1015,1 hPa 0,0 l/m 2 min 0 min 412 W/m 16,1 km/h (3 Bft) 97,83 %
14.06.2019 10:28 20,3 C 22,8 C 22,2 C 73 % 1015,1 hPa 0,0 l/m 2 min 0 min 409 W/m 12,9 km/h (3 Bft) 97,87 %
14.06.2019 10:30 20,4 C 22,2 C 21,7 C 72 % 1015,0 hPa 0,0 l/m 2 min 0 min 443 W/m 9,7 km/h (2 Bft) 97,87 %
14.06.2019 10:32 20,4 C 23,3 C 22,2 C 73 % 1014,9 hPa 0,0 l/m 2 min 0 min 427 W/m 9,7 km/h (2 Bft) 95,74 %
14.06.2019 10:34 20,4 C 22,8 C 22,2 C 73 % 1014,9 hPa 0,0 l/m 2 min 0 min 419 W/m 9,7 km/h (2 Bft) 95,74 %
14.06.2019 10:36 20,4 C 22,2 C 21,7 C 72 % 1014,9 hPa 0,0 l/m 0 min 0 min 315 W/m 16,1 km/h (3 Bft) 95,74 %
14.06.2019 10:38 20,4 C 22,2 C 21,7 C 71 % 1014,9 hPa 0,0 l/m 0 min 0 min 308 W/m 9,7 km/h (2 Bft) 95,65 %
14.06.2019 10:40 20,4 C 23,3 C 22,8 C 71 % 1014,9 hPa 0,0 l/m 0 min 0 min 317 W/m 9,7 km/h (2 Bft) 100,00 %
14.06.2019 10:42 20,5 C 22,2 C 21,7 C 71 % 1014,9 hPa 0,0 l/m 0 min 0 min 337 W/m 12,9 km/h (3 Bft) 100,00 %
14.06.2019 10:44 20,5 C 21,7 C 21,1 C 71 % 1014,9 hPa 0,0 l/m 0 min 0 min 244 W/m 6,4 km/h (2 Bft) 95,74 %
14.06.2019 10:46 20,5 C 21,1 C 20,6 C 71 % 1015,0 hPa 0,0 l/m 0 min 0 min 190 W/m 6,4 km/h (2 Bft) 97,87 %
14.06.2019 10:48 20,4 C 20,6 C 20,0 C 72 % 1015,0 hPa 0,0 l/m 0 min 0 min 180 W/m 6,4 km/h (2 Bft) 97,87 %
14.06.2019 10:50 20,4 C 20,6 C 20,0 C 71 % 1015,0 hPa 0,0 l/m 0 min 0 min 186 W/m 6,4 km/h (2 Bft) 97,83 %
14.06.2019 10:52 20,4 C 20,6 C 19,4 C 71 % 1015,0 hPa 0,0 l/m 0 min 0 min 195 W/m 6,4 km/h (2 Bft) 100,00 %
14.06.2019 10:54 20,4 C 20,0 C 19,4 C 72 % 1015,1 hPa 0,0 l/m 0 min 0 min 200 W/m 9,7 km/h (2 Bft) 95,74 %
14.06.2019 10:56 20,3 C 20,0 C 19,4 C 72 % 1015,1 hPa 0,0 l/m 0 min 0 min 214 W/m 6,4 km/h (2 Bft) 97,87 %
14.06.2019 10:58 20,2 C 20,0 C 18,9 C 72 % 1015,0 hPa 0,0 l/m 0 min 0 min 242 W/m 6,4 km/h (2 Bft) 100,00 %
14.06.2019 11:00 20,2 C 20,0 C 18,9 C 72 % 1014,9 hPa 0,0 l/m 0 min 0 min 286 W/m 6,4 km/h (2 Bft) 97,87 %
14.06.2019 11:02 20,2 C 21,1 C 20,0 C 72 % 1014,9 hPa 0,0 l/m 0 min 0 min 353 W/m 9,7 km/h (2 Bft) 97,83 %
14.06.2019 11:04 20,2 C 22,2 C 20,6 C 72 % 1014,8 hPa 0,0 l/m 2 min 0 min 415 W/m 9,7 km/h (2 Bft) 97,87 %
14.06.2019 11:06 20,2 C 22,2 C 21,1 C 72 % 1014,8 hPa 0,0 l/m 2 min 0 min 475 W/m 12,9 km/h (3 Bft) 95,74 %
14.06.2019 11:08 20,2 C 22,8 C 21,7 C 72 % 1014,7 hPa 0,0 l/m 2 min 0 min 485 W/m 12,9 km/h (3 Bft) 93,62 %
14.06.2019 11:10 20,2 C 23,3 C 22,2 C 72 % 1014,6 hPa 0,0 l/m 2 min 0 min 441 W/m 3,2 km/h (1 Bft) 97,87 %
14.06.2019 11:12 20,2 C 23,9 C 22,8 C 72 % 1014,5 hPa 0,0 l/m 2 min 0 min 443 W/m 9,7 km/h (2 Bft) 97,87 %
14.06.2019 11:14 20,3 C 25,6 C 24,4 C 72 % 1014,5 hPa 0,0 l/m 2 min 0 min 443 W/m 6,4 km/h (2 Bft) 97,83 %
14.06.2019 11:16 20,3 C 27,8 C 26,7 C 73 % 1014,4 hPa 0,0 l/m 2 min 0 min 900 W/m 6,4 km/h (2 Bft) 95,74 %
14.06.2019 11:18 20,5 C 28,3 C 27,8 C 74 % 1014,3 hPa 0,0 l/m 2 min 0 min 958 W/m 6,4 km/h (2 Bft) 95,74 %
14.06.2019 11:20 20,7 C 30,0 C 29,4 C 76 % 1014,3 hPa 0,0 l/m 2 min 0 min 960 W/m 6,4 km/h (2 Bft) 97,87 %
14.06.2019 11:22 20,8 C 29,4 C 28,9 C 74 % 1014,4 hPa 0,0 l/m 2 min 0 min 964 W/m 9,7 km/h (2 Bft) 91,49 %
14.06.2019 11:24 20,9 C 28,3 C 27,8 C 72 % 1014,4 hPa 0,0 l/m 2 min 0 min 962 W/m 9,7 km/h (2 Bft) 95,65 %
14.06.2019 11:26 21,1 C 27,8 C 27,8 C 72 % 1014,4 hPa 0,0 l/m 2 min 0 min 559 W/m 6,4 km/h (2 Bft) 95,74 %
14.06.2019 11:28 21,1 C 25,0 C 25,0 C 71 % 1014,5 hPa 0,0 l/m 0 min 0 min 336 W/m 6,4 km/h (2 Bft) 93,62 %
14.06.2019 11:30 21,2 C 23,9 C 23,3 C 70 % 1014,5 hPa 0,0 l/m 0 min 0 min 241 W/m 3,2 km/h (1 Bft) 95,74 %
14.06.2019 11:32 21,2 C 23,9 C 22,8 C 71 % 1014,5 hPa 0,0 l/m 0 min 0 min 254 W/m 3,2 km/h (1 Bft) 95,74 %
14.06.2019 11:34 21,3 C 23,3 C 22,2 C 72 % 1014,5 hPa 0,0 l/m 0 min 0 min 271 W/m 6,4 km/h (2 Bft) 95,74 %
14.06.2019 11:36 21,3 C 22,8 C 21,7 C 71 % 1014,6 hPa 0,0 l/m 0 min 0 min 250 W/m 6,4 km/h (2 Bft) 91,30 %
14.06.2019 11:38 21,4 C 22,8 C 21,7 C 70 % 1014,7 hPa 0,0 l/m 0 min 0 min 245 W/m 6,4 km/h (2 Bft) 94,55 %
14.06.2019 11:40 21,4 C 22,8 C 21,7 C 69 % 1014,8 hPa 0,0 l/m 0 min 0 min 261 W/m 6,4 km/h (2 Bft) 95,65 %
14.06.2019 11:42 21,3 C 22,2 C 21,1 C 69 % 1015,0 hPa 0,0 l/m 0 min 0 min 257 W/m 3,2 km/h (1 Bft) 95,74 %
14.06.2019 11:44 21,3 C 22,8 C 21,1 C 70 % 1014,9 hPa 0,0 l/m 0 min 0 min 281 W/m 0,0 km/h (0 Bft) 93,62 %
14.06.2019 11:46 21,3 C 22,2 C 21,1 C 70 % 1015,0 hPa 0,0 l/m 0 min 0 min 240 W/m 6,4 km/h (2 Bft) 95,74 %
14.06.2019 11:48 21,3 C 23,3 C 22,2 C 69 % 1015,0 hPa 0,0 l/m 0 min 0 min 272 W/m 9,7 km/h (2 Bft) 93,62 %
14.06.2019 11:50 21,3 C 24,4 C 23,9 C 69 % 1015,1 hPa 0,0 l/m 0 min 0 min 290 W/m 12,9 km/h (3 Bft) 91,49 %
14.06.2019 11:52 21,3 C 22,8 C 22,2 C 69 % 1015,1 hPa 0,0 l/m 0 min 0 min 283 W/m 9,7 km/h (2 Bft) 95,65 %
14.06.2019 11:54 21,3 C 21,7 C 21,1 C 68 % 1015,2 hPa 0,0 l/m 0 min 0 min 259 W/m 22,5 km/h (4 Bft) 93,62 %
14.06.2019 11:56 21,3 C 21,7 C 20,6 C 67 % 1015,4 hPa 0,0 l/m 0 min 0 min 244 W/m 9,7 km/h (2 Bft) 93,62 %
14.06.2019 11:58 21,2 C 21,1 C 20,6 C 67 % 1015,4 hPa 0,0 l/m 0 min 0 min 243 W/m 12,9 km/h (3 Bft) 95,74 %
14.06.2019 12:00 21,2 C 22,2 C 21,1 C 67 % 1015,5 hPa 0,0 l/m 0 min 0 min 281 W/m 16,1 km/h (3 Bft) 95,74 %
14.06.2019 12:02 21,2 C 23,3 C 22,8 C 68 % 1015,5 hPa 0,0 l/m 0 min 0 min 290 W/m 12,9 km/h (3 Bft) 93,62 %
14.06.2019 12:04 21,2 C 22,8 C 22,2 C 69 % 1015,4 hPa 0,0 l/m 0 min 0 min 291 W/m 16,1 km/h (3 Bft) 95,65 %
14.06.2019 12:08 21,2 C 23,9 C 23,3 C 69 % 1015,3 hPa 0,0 l/m 0 min 0 min 394 W/m 16,1 km/h (3 Bft) 97,87 %
14.06.2019 12:10 21,2 C 25,0 C 23,9 C 69 % 1015,4 hPa 0,0 l/m 0 min 0 min 423 W/m 9,7 km/h (2 Bft) 97,87 %
14.06.2019 12:12 21,2 C 23,9 C 23,3 C 70 % 1015,4 hPa 0,0 l/m 0 min 0 min 377 W/m 12,9 km/h (3 Bft) 100,00 %
14.06.2019 12:14 21,2 C 23,9 C 23,3 C 69 % 1015,5 hPa 0,0 l/m 0 min 0 min 361 W/m 16,1 km/h (3 Bft) 100,00 %
14.06.2019 12:16 21,3 C 25,0 C 25,0 C 67 % 1015,5 hPa 0,0 l/m 0 min 0 min 362 W/m 16,1 km/h (3 Bft) 100,00 %
14.06.2019 12:18 21,3 C 27,8 C 27,8 C 68 % 1015,5 hPa 0,0 l/m 0 min 0 min 362 W/m 9,7 km/h (2 Bft) 93,62 %
14.06.2019 12:20 21,4 C 28,3 C 29,4 C 67 % 1015,5 hPa 0,0 l/m 2 min 0 min 857 W/m 22,5 km/h (4 Bft) 100,00 %
14.06.2019 12:22 21,6 C 27,2 C 28,3 C 67 % 1015,5 hPa 0,0 l/m 2 min 0 min 938 W/m 16,1 km/h (3 Bft) 95,74 %
14.06.2019 12:24 21,7 C 28,3 C 29,4 C 66 % 1015,5 hPa 0,0 l/m 2 min 0 min 936 W/m 9,7 km/h (2 Bft) 95,74 %
14.06.2019 12:26 21,8 C 29,4 C 29,4 C 66 % 1015,5 hPa 0,0 l/m 2 min 0 min 941 W/m 12,9 km/h (3 Bft) 100,00 %
14.06.2019 12:28 21,9 C 29,4 C 30,6 C 64 % 1015,5 hPa 0,0 l/m 2 min 0 min 969 W/m 12,9 km/h (3 Bft) 100,00 %
14.06.2019 12:30 22,0 C 28,3 C 29,4 C 60 % 1015,5 hPa 0,0 l/m 2 min 0 min 985 W/m 19,3 km/h (3 Bft) 100,00 %
14.06.2019 12:32 22,1 C 29,4 C 31,1 C 62 % 1015,5 hPa 0,0 l/m 2 min 0 min 1012 W/m 12,9 km/h (3 Bft) 100,00 %
14.06.2019 12:34 22,2 C 27,2 C 28,9 C 62 % 1015,4 hPa 0,0 l/m 2 min 0 min 904 W/m 6,4 km/h (2 Bft) 100,00 %
14.06.2019 12:36 22,3 C 26,1 C 26,7 C 62 % 1015,4 hPa 0,0 l/m 0 min 0 min 281 W/m 12,9 km/h (3 Bft) 97,87 %
14.06.2019 12:38 22,3 C 25,6 C 25,6 C 63 % 1015,5 hPa 0,0 l/m 0 min 0 min 354 W/m 9,7 km/h (2 Bft) 98,00 %
14.06.2019 12:40 22,4 C 25,6 C 25,6 C 63 % 1015,5 hPa 0,0 l/m 0 min 0 min 357 W/m 12,9 km/h (3 Bft) 100,00 %
14.06.2019 12:42 22,4 C 27,8 C 27,8 C 62 % 1015,3 hPa 0,0 l/m 0 min 0 min 357 W/m 12,9 km/h (3 Bft) 100,00 %
14.06.2019 12:44 22,5 C 27,2 C 27,8 C 61 % 1015,4 hPa 0,0 l/m 2 min 0 min 978 W/m 9,7 km/h (2 Bft) 100,00 %
14.06.2019 12:46 22,6 C 27,8 C 28,3 C 61 % 1015,4 hPa 0,0 l/m 2 min 0 min 1042 W/m 12,9 km/h (3 Bft) 97,87 %
14.06.2019 12:48 22,7 C 30,0 C 30,0 C 62 % 1015,4 hPa 0,0 l/m 2 min 0 min 973 W/m 6,4 km/h (2 Bft) 95,74 %
14.06.2019 12:50 22,8 C 30,6 C 30,6 C 61 % 1015,5 hPa 0,0 l/m 2 min 0 min 959 W/m 9,7 km/h (2 Bft) 95,65 %
14.06.2019 12:52 23,0 C 31,1 C 31,7 C 63 % 1015,5 hPa 0,0 l/m 2 min 0 min 950 W/m 6,4 km/h (2 Bft) 95,74 %
14.06.2019 12:54 23,2 C 31,1 C 32,2 C 60 % 1015,5 hPa 0,0 l/m 2 min 0 min 950 W/m 9,7 km/h (2 Bft) 100,00 %
14.06.2019 12:56 23,3 C 30,0 C 32,2 C 60 % 1015,5 hPa 0,0 l/m 2 min 0 min 950 W/m 9,7 km/h (2 Bft) 97,87 %
14.06.2019 12:58 23,3 C 30,6 C 32,8 C 60 % 1015,5 hPa 0,0 l/m 2 min 0 min 956 W/m 9,7 km/h (2 Bft) 97,87 %
14.06.2019 13:00 23,4 C 30,0 C 32,2 C 59 % 1015,4 hPa 0,0 l/m 2 min 0 min 954 W/m 16,1 km/h (3 Bft) 97,87 %
14.06.2019 13:02 23,6 C 30,0 C 32,2 C 58 % 1015,4 hPa 0,0 l/m 2 min 0 min 956 W/m 12,9 km/h (3 Bft) 97,83 %
14.06.2019 13:04 23,7 C 30,6 C 32,2 C 57 % 1015,4 hPa 0,0 l/m 2 min 0 min 960 W/m 9,7 km/h (2 Bft) 97,87 %
14.06.2019 13:06 23,7 C 28,3 C 31,1 C 56 % 1015,4 hPa 0,0 l/m 2 min 0 min 962 W/m 16,1 km/h (3 Bft) 97,87 %
14.06.2019 13:08 23,8 C 28,9 C 31,1 C 57 % 1015,4 hPa 0,0 l/m 2 min 0 min 960 W/m 6,4 km/h (2 Bft) 97,87 %
14.06.2019 13:10 23,9 C 30,0 C 31,7 C 58 % 1015,3 hPa 0,0 l/m 2 min 0 min 961 W/m 9,7 km/h (2 Bft) 97,87 %
14.06.2019 13:12 24,0 C 30,6 C 32,2 C 58 % 1015,3 hPa 0,0 l/m 2 min 0 min 961 W/m 9,7 km/h (2 Bft) 95,65 %
14.06.2019 13:14 24,1 C 31,1 C 33,3 C 57 % 1015,2 hPa 0,0 l/m 2 min 0 min 964 W/m 9,7 km/h (2 Bft) 97,87 %
14.06.2019 13:16 24,2 C 30,0 C 32,2 C 55 % 1015,2 hPa 0,0 l/m 2 min 0 min 962 W/m 16,1 km/h (3 Bft) 97,87 %
14.06.2019 13:18 24,2 C 30,0 C 31,7 C 55 % 1015,3 hPa 0,0 l/m 2 min 0 min 964 W/m 9,7 km/h (2 Bft) 97,87 %
14.06.2019 13:20 24,3 C 29,4 C 31,7 C 54 % 1015,2 hPa 0,0 l/m 2 min 0 min 965 W/m 9,7 km/h (2 Bft) 97,87 %
14.06.2019 13:22 24,4 C 29,4 C 31,7 C 54 % 1015,2 hPa 0,0 l/m 2 min 0 min 968 W/m 9,7 km/h (2 Bft) 97,87 %
14.06.2019 13:24 24,4 C 30,0 C 32,8 C 53 % 1015,2 hPa 0,0 l/m 2 min 0 min 969 W/m 9,7 km/h (2 Bft) 97,87 %
14.06.2019 13:26 24,6 C 31,1 C 34,4 C 58 % 1015,1 hPa 0,0 l/m 2 min 0 min 969 W/m 6,4 km/h (2 Bft) 97,83 %
14.06.2019 13:28 24,6 C 30,6 C 34,4 C 55 % 1015,1 hPa 0,0 l/m 2 min 0 min 973 W/m 9,7 km/h (2 Bft) 97,87 %
14.06.2019 13:30 24,7 C 30,6 C 34,4 C 55 % 1015,1 hPa 0,0 l/m 2 min 0 min 971 W/m 12,9 km/h (3 Bft) 95,74 %
14.06.2019 13:32 24,7 C 29,4 C 33,3 C 50 % 1015,1 hPa 0,0 l/m 2 min 0 min 971 W/m 12,9 km/h (3 Bft) 97,87 %
14.06.2019 13:34 24,8 C 31,1 C 34,4 C 56 % 1015,1 hPa 0,0 l/m 2 min 0 min 970 W/m 6,4 km/h (2 Bft) 97,87 %
14.06.2019 13:36 24,9 C 31,1 C 33,9 C 50 % 1015,0 hPa 0,0 l/m 2 min 0 min 968 W/m 9,7 km/h (2 Bft) 93,62 %
14.06.2019 13:38 25,0 C 32,2 C 35,0 C 51 % 1015,0 hPa 0,0 l/m 2 min 0 min 968 W/m 6,4 km/h (2 Bft) 100,00 %
14.06.2019 13:40 25,1 C 32,2 C 35,6 C 51 % 1015,1 hPa 0,0 l/m 2 min 0 min 967 W/m 6,4 km/h (2 Bft) 100,00 %
14.06.2019 13:42 25,2 C 33,3 C 35,6 C 51 % 1015,1 hPa 0,0 l/m 2 min 0 min 968 W/m 9,7 km/h (2 Bft) 97,83 %
14.06.2019 13:44 25,2 C 30,6 C 35,0 C 49 % 1015,0 hPa 0,0 l/m 2 min 0 min 968 W/m 9,7 km/h (2 Bft) 97,87 %
14.06.2019 13:46 25,2 C 31,7 C 35,6 C 51 % 1015,1 hPa 0,0 l/m 2 min 0 min 968 W/m 9,7 km/h (2 Bft) 97,87 %
14.06.2019 13:48 25,2 C 31,1 C 35,0 C 51 % 1015,1 hPa 0,0 l/m 2 min 0 min 963 W/m 6,4 km/h (2 Bft) 100,00 %
14.06.2019 13:50 25,3 C 32,2 C 35,0 C 53 % 1015,1 hPa 0,0 l/m 2 min 0 min 967 W/m 6,4 km/h (2 Bft) 97,87 %
14.06.2019 13:52 25,4 C 31,7 C 35,0 C 51 % 1015,1 hPa 0,0 l/m 2 min 0 min 969 W/m 16,1 km/h (3 Bft) 100,00 %
14.06.2019 13:54 25,4 C 30,6 C 33,3 C 50 % 1015,0 hPa 0,0 l/m 2 min 0 min 964 W/m 9,7 km/h (2 Bft) 100,00 %
14.06.2019 13:56 25,5 C 31,1 C 33,9 C 53 % 1014,9 hPa 0,0 l/m 2 min 0 min 966 W/m 3,2 km/h (1 Bft) 100,00 %
14.06.2019 13:58 25,6 C 31,1 C 33,3 C 51 % 1014,9 hPa 0,0 l/m 2 min 0 min 966 W/m 6,4 km/h (2 Bft) 97,87 %
14.06.2019 14:00 25,6 C 29,4 C 32,2 C 48 % 1014,9 hPa 0,0 l/m 2 min 0 min 967 W/m 9,7 km/h (2 Bft) 97,87 %
14.06.2019 14:02 25,7 C 31,1 C 33,3 C 49 % 1014,9 hPa 0,0 l/m 2 min 0 min 965 W/m 6,4 km/h (2 Bft) 97,87 %
14.06.2019 14:04 25,7 C 32,2 C 33,9 C 50 % 1014,9 hPa 0,0 l/m 2 min 0 min 964 W/m 6,4 km/h (2 Bft) 97,87 %
14.06.2019 14:06 25,7 C 32,2 C 34,4 C 50 % 1014,8 hPa 0,0 l/m 2 min 0 min 966 W/m 9,7 km/h (2 Bft) 97,14 %
14.06.2019 14:08 25,8 C 31,1 C 33,9 C 50 % 1014,8 hPa 0,0 l/m 2 min 0 min 966 W/m 9,7 km/h (2 Bft) 98,28 %
14.06.2019 14:10 25,8 C 31,1 C 34,4 C 47 % 1014,8 hPa 0,0 l/m 2 min 0 min 965 W/m 12,9 km/h (3 Bft) 97,87 %
14.06.2019 14:12 25,7 C 31,7 C 35,0 C 51 % 1014,8 hPa 0,0 l/m 2 min 0 min 964 W/m 6,4 km/h (2 Bft) 95,65 %
14.06.2019 14:14 25,8 C 31,1 C 35,0 C 49 % 1014,7 hPa 0,0 l/m 2 min 0 min 963 W/m 6,4 km/h (2 Bft) 97,87 %
14.06.2019 14:16 25,8 C 30,6 C 35,0 C 47 % 1014,7 hPa 0,0 l/m 2 min 0 min 963 W/m 9,7 km/h (2 Bft) 93,62 %
14.06.2019 14:18 25,8 C 30,0 C 34,4 C 47 % 1014,7 hPa 0,0 l/m 2 min 0 min 963 W/m 12,9 km/h (3 Bft) 95,74 %
14.06.2019 14:20 25,8 C 30,0 C 34,4 C 47 % 1014,7 hPa 0,0 l/m 2 min 0 min 963 W/m 9,7 km/h (2 Bft) 97,87 %
14.06.2019 14:22 25,8 C 30,0 C 34,4 C 49 % 1014,7 hPa 0,0 l/m 2 min 0 min 963 W/m 9,7 km/h (2 Bft) 97,83 %
14.06.2019 14:24 25,9 C 31,1 C 33,9 C 50 % 1014,7 hPa 0,0 l/m 2 min 0 min 961 W/m 6,4 km/h (2 Bft) 97,87 %
14.06.2019 14:26 25,9 C 30,0 C 34,4 C 48 % 1014,7 hPa 0,0 l/m 2 min 0 min 959 W/m 9,7 km/h (2 Bft) 95,74 %
14.06.2019 14:28 25,9 C 31,1 C 35,0 C 50 % 1014,7 hPa 0,0 l/m 2 min 0 min 957 W/m 6,4 km/h (2 Bft) 95,74 %
14.06.2019 14:30 26,1 C 31,1 C 34,4 C 48 % 1014,7 hPa 0,0 l/m 2 min 0 min 957 W/m 6,4 km/h (2 Bft) 95,74 %
14.06.2019 14:32 26,1 C 31,1 C 35,0 C 48 % 1014,7 hPa 0,0 l/m 2 min 0 min 952 W/m 9,7 km/h (2 Bft) 97,87 %
14.06.2019 14:34 26,1 C 31,7 C 35,6 C 50 % 1014,7 hPa 0,0 l/m 2 min 0 min 950 W/m 6,4 km/h (2 Bft) 93,48 %
14.06.2019 14:36 26,3 C 31,7 C 36,1 C 55 % 1014,6 hPa 0,0 l/m 2 min 0 min 945 W/m 9,7 km/h (2 Bft) 93,62 %
14.06.2019 14:38 26,4 C 32,2 C 36,7 C 52 % 1014,6 hPa 0,0 l/m 2 min 0 min 949 W/m 6,4 km/h (2 Bft) 95,74 %
14.06.2019 14:40 26,6 C 32,8 C 35,0 C 53 % 1014,6 hPa 0,0 l/m 2 min 0 min 951 W/m 6,4 km/h (2 Bft) 93,62 %
14.06.2019 14:42 26,7 C 31,1 C 33,3 C 48 % 1014,6 hPa 0,0 l/m 2 min 0 min 950 W/m 9,7 km/h (2 Bft) 93,62 %
14.06.2019 14:44 26,7 C 31,7 C 33,3 C 48 % 1014,6 hPa 0,0 l/m 2 min 0 min 949 W/m 9,7 km/h (2 Bft) 97,87 %
14.06.2019 14:46 26,7 C 31,1 C 31,7 C 48 % 1014,5 hPa 0,0 l/m 2 min 0 min 946 W/m 9,7 km/h (2 Bft) 97,83 %
14.06.2019 14:48 26,8 C 31,7 C 31,1 C 53 % 1014,5 hPa 0,0 l/m 2 min 0 min 926 W/m 9,7 km/h (2 Bft) 97,87 %
14.06.2019 14:50 26,8 C 31,1 C 32,2 C 51 % 1014,5 hPa 0,0 l/m 2 min 0 min 895 W/m 9,7 km/h (2 Bft) 95,74 %
14.06.2019 14:52 26,8 C 31,1 C 33,3 C 50 % 1014,5 hPa 0,0 l/m 2 min 0 min 933 W/m 6,4 km/h (2 Bft) 95,74 %
14.06.2019 14:54 26,9 C 31,7 C 32,2 C 50 % 1014,5 hPa 0,0 l/m 2 min 0 min 926 W/m 6,4 km/h (2 Bft) 97,87 %
14.06.2019 14:56 26,9 C 31,7 C 30,0 C 52 % 1014,5 hPa 0,0 l/m 2 min 0 min 921 W/m 6,4 km/h (2 Bft) 97,87 %
14.06.2019 14:58 27,0 C 31,1 C 27,8 C 54 % 1014,5 hPa 0,0 l/m 2 min 0 min 944 W/m 6,4 km/h (2 Bft) 97,83 %
14.06.2019 15:00 27,1 C 31,1 C 27,2 C 53 % 1014,5 hPa 0,0 l/m 2 min 0 min 919 W/m 9,7 km/h (2 Bft) 95,74 %
14.06.2019 15:02 27,1 C 31,1 C 26,1 C 51 % 1014,5 hPa 0,0 l/m 2 min 0 min 901 W/m 9,7 km/h (2 Bft) 97,87 %
14.06.2019 15:04 27,2 C 31,1 C 26,1 C 50 % 1014,4 hPa 0,0 l/m 2 min 0 min 954 W/m 6,4 km/h (2 Bft) 95,74 %
14.06.2019 15:06 27,2 C 31,7 C 26,1 C 52 % 1014,4 hPa 0,0 l/m 2 min 0 min 925 W/m 6,4 km/h (2 Bft) 95,74 %
14.06.2019 15:08 27,3 C 32,2 C 26,1 C 52 % 1014,4 hPa 0,0 l/m 2 min 0 min 933 W/m 9,7 km/h (2 Bft) 97,87 %
14.06.2019 15:10 27,3 C 31,1 C 26,1 C 51 % 1014,3 hPa 0,0 l/m 2 min 0 min 913 W/m 9,7 km/h (2 Bft) 97,83 %
14.06.2019 15:12 27,3 C 31,1 C 26,1 C 48 % 1014,4 hPa 0,0 l/m 2 min 0 min 897 W/m 6,4 km/h (2 Bft) 97,87 %
14.06.2019 15:14 27,4 C 32,2 C 26,1 C 56 % 1014,4 hPa 0,0 l/m 2 min 0 min 835 W/m 3,2 km/h (1 Bft) 97,87 %
14.06.2019 15:16 27,5 C 32,2 C 26,1 C 53 % 1014,4 hPa 0,0 l/m 2 min 0 min 834 W/m 6,4 km/h (2 Bft) 97,87 %
14.06.2019 15:18 27,6 C 31,1 C 26,1 C 53 % 1014,3 hPa 0,0 l/m 2 min 0 min 835 W/m 3,2 km/h (1 Bft) 97,87 %
14.06.2019 15:20 27,6 C 31,1 C 26,1 C 52 % 1014,3 hPa 0,0 l/m 2 min 0 min 835 W/m 6,4 km/h (2 Bft) 97,87 %
14.06.2019 15:22 27,7 C 31,1 C 26,1 C 55 % 1014,2 hPa 0,0 l/m 2 min 0 min 835 W/m 6,4 km/h (2 Bft) 100,00 %
14.06.2019 15:24 27,7 C 31,1 C 26,1 C 49 % 1014,2 hPa 0,0 l/m 2 min 0 min 928 W/m 9,7 km/h (2 Bft) 100,00 %
14.06.2019 15:26 27,8 C 31,1 C 26,7 C 50 % 1014,2 hPa 0,0 l/m 2 min 0 min 800 W/m 6,4 km/h (2 Bft) 100,00 %
14.06.2019 15:28 27,8 C 31,1 C 26,7 C 48 % 1014,2 hPa 0,0 l/m 2 min 0 min 917 W/m 9,7 km/h (2 Bft) 100,00 %
14.06.2019 15:30 27,8 C 30,6 C 26,1 C 48 % 1014,2 hPa 0,0 l/m 2 min 0 min 852 W/m 9,7 km/h (2 Bft) 100,00 %
14.06.2019 15:32 27,9 C 30,0 C 26,1 C 49 % 1014,0 hPa 0,0 l/m 2 min 0 min 772 W/m 6,4 km/h (2 Bft) 100,00 %
14.06.2019 15:34 27,9 C 30,6 C 26,1 C 49 % 1014,1 hPa 0,0 l/m 2 min 0 min 809 W/m 6,4 km/h (2 Bft) 100,00 %
14.06.2019 15:36 28,0 C 31,1 C 26,1 C 53 % 1014,2 hPa 0,0 l/m 2 min 0 min 939 W/m 6,4 km/h (2 Bft) 100,00 %
14.06.2019 15:38 28,0 C 30,0 C 25,6 C 48 % 1014,1 hPa 0,0 l/m 2 min 0 min 845 W/m 6,4 km/h (2 Bft) 100,00 %
14.06.2019 15:40 28,0 C 30,6 C 25,6 C 52 % 1014,2 hPa 0,0 l/m 2 min 0 min 896 W/m 6,4 km/h (2 Bft) 100,00 %
14.06.2019 15:42 28,0 C 30,6 C 25,6 C 50 % 1014,1 hPa 0,0 l/m 2 min 0 min 912 W/m 6,4 km/h (2 Bft) 100,00 %
14.06.2019 15:44 28,0 C 31,1 C 25,6 C 50 % 1014,2 hPa 0,0 l/m 2 min 0 min 879 W/m 9,7 km/h (2 Bft) 100,00 %
14.06.2019 15:46 28,0 C 30,0 C 25,6 C 49 % 1014,1 hPa 0,0 l/m 2 min 0 min 848 W/m 6,4 km/h (2 Bft) 97,87 %
14.06.2019 15:48 28,0 C 30,0 C 25,6 C 48 % 1014,0 hPa 0,0 l/m 2 min 0 min 944 W/m 6,4 km/h (2 Bft) 100,00 %
14.06.2019 15:50 28,0 C 30,0 C 25,6 C 49 % 1013,9 hPa 0,0 l/m 2 min 0 min 919 W/m 3,2 km/h (1 Bft) 97,87 %
14.06.2019 15:52 28,0 C 30,0 C 25,6 C 49 % 1013,9 hPa 0,0 l/m 2 min 0 min 906 W/m 9,7 km/h (2 Bft) 97,87 %
14.06.2019 15:54 28,0 C 29,4 C 26,1 C 50 % 1013,9 hPa 0,0 l/m 2 min 0 min 823 W/m 9,7 km/h (2 Bft) 100,00 %
14.06.2019 15:56 28,0 C 29,4 C 25,6 C 49 % 1013,9 hPa 0,0 l/m 2 min 0 min 765 W/m 6,4 km/h (2 Bft) 100,00 %
14.06.2019 15:58 28,0 C 29,4 C 25,6 C 50 % 1014,0 hPa 0,0 l/m 2 min 0 min 663 W/m 6,4 km/h (2 Bft) 100,00 %
14.06.2019 16:00 28,1 C 29,4 C 25,6 C 48 % 1013,9 hPa 0,0 l/m 2 min 0 min 768 W/m 3,2 km/h (1 Bft) 100,00 %
14.06.2019 16:02 28,0 C 28,9 C 25,6 C 49 % 1013,9 hPa 0,0 l/m 2 min 0 min 762 W/m 9,7 km/h (2 Bft) 100,00 %
14.06.2019 16:04 28,0 C 28,9 C 25,6 C 51 % 1013,9 hPa 0,0 l/m 2 min 0 min 743 W/m 6,4 km/h (2 Bft) 100,00 %
14.06.2019 16:06 27,9 C 28,9 C 25,6 C 49 % 1013,9 hPa 0,0 l/m 2 min 0 min 691 W/m 6,4 km/h (2 Bft) 100,00 %
14.06.2019 16:08 27,9 C 28,9 C 26,1 C 51 % 1013,7 hPa 0,0 l/m 2 min 0 min 715 W/m 6,4 km/h (2 Bft) 100,00 %
14.06.2019 16:10 27,9 C 28,3 C 25,6 C 49 % 1013,6 hPa 0,0 l/m 2 min 0 min 641 W/m 6,4 km/h (2 Bft) 100,00 %
14.06.2019 16:12 27,9 C 28,3 C 25,6 C 51 % 1013,6 hPa 0,0 l/m 2 min 0 min 553 W/m 6,4 km/h (2 Bft) 100,00 %
14.06.2019 16:14 27,9 C 28,3 C 26,1 C 52 % 1013,6 hPa 0,0 l/m 2 min 0 min 694 W/m 6,4 km/h (2 Bft) 100,00 %
14.06.2019 16:16 27,9 C 28,3 C 26,1 C 49 % 1013,6 hPa 0,0 l/m 2 min 0 min 871 W/m 6,4 km/h (2 Bft) 100,00 %
14.06.2019 16:18 27,8 C 27,2 C 25,6 C 48 % 1013,6 hPa 0,0 l/m 2 min 0 min 643 W/m 6,4 km/h (2 Bft) 100,00 %
14.06.2019 16:20 27,8 C 27,2 C 25,6 C 51 % 1013,6 hPa 0,0 l/m 2 min 0 min 621 W/m 6,4 km/h (2 Bft) 100,00 %
14.06.2019 16:22 27,7 C 27,2 C 25,6 C 50 % 1013,6 hPa 0,0 l/m 2 min 0 min 567 W/m 6,4 km/h (2 Bft) 100,00 %
14.06.2019 16:24 27,7 C 27,8 C 25,6 C 55 % 1013,6 hPa 0,0 l/m 2 min 0 min 714 W/m 6,4 km/h (2 Bft) 100,00 %
14.06.2019 16:26 27,7 C 27,8 C 26,1 C 50 % 1013,7 hPa 0,0 l/m 2 min 0 min 754 W/m 6,4 km/h (2 Bft) 100,00 %
14.06.2019 16:28 27,7 C 27,2 C 26,1 C 49 % 1013,6 hPa 0,0 l/m 2 min 0 min 782 W/m 6,4 km/h (2 Bft) 97,83 %
14.06.2019 16:30 27,7 C 27,2 C 26,1 C 51 % 1013,6 hPa 0,0 l/m 2 min 0 min 831 W/m 9,7 km/h (2 Bft) 97,87 %
14.06.2019 16:32 27,7 C 27,8 C 26,1 C 49 % 1013,6 hPa 0,0 l/m 2 min 0 min 848 W/m 9,7 km/h (2 Bft) 97,87 %
14.06.2019 16:34 27,7 C 28,3 C 26,1 C 48 % 1013,7 hPa 0,0 l/m 2 min 0 min 860 W/m 9,7 km/h (2 Bft) 97,87 %
14.06.2019 16:36 27,8 C 27,8 C 26,1 C 49 % 1013,6 hPa 0,0 l/m 2 min 0 min 665 W/m 6,4 km/h (2 Bft) 97,87 %
14.06.2019 16:38 27,8 C 28,3 C 26,7 C 50 % 1013,5 hPa 0,0 l/m 2 min 0 min 728 W/m 9,7 km/h (2 Bft) 97,87 %
14.06.2019 16:40 27,8 C 28,3 C 26,7 C 50 % 1013,5 hPa 0,0 l/m 2 min 0 min 778 W/m 9,7 km/h (2 Bft) 95,65 %
14.06.2019 16:42 27,8 C 27,2 C 26,1 C 48 % 1013,5 hPa 0,0 l/m 2 min 0 min 718 W/m 9,7 km/h (2 Bft) 97,87 %
14.06.2019 16:44 27,8 C 27,2 C 26,1 C 49 % 1013,4 hPa 0,0 l/m 2 min 0 min 467 W/m 9,7 km/h (2 Bft) 97,87 %
14.06.2019 16:46 27,8 C 26,7 C 25,6 C 48 % 1013,4 hPa 0,0 l/m 2 min 0 min 508 W/m 9,7 km/h (2 Bft) 97,87 %
14.06.2019 16:48 27,9 C 27,2 C 25,6 C 51 % 1013,4 hPa 0,0 l/m 2 min 0 min 779 W/m 9,7 km/h (2 Bft) 97,87 %
14.06.2019 16:50 27,9 C 27,2 C 26,1 C 50 % 1013,4 hPa 0,0 l/m 2 min 0 min 771 W/m 9,7 km/h (2 Bft) 97,87 %
14.06.2019 16:52 27,9 C 27,2 C 25,6 C 50 % 1013,4 hPa 0,0 l/m 2 min 0 min 707 W/m 9,7 km/h (2 Bft) 97,83 %
14.06.2019 16:54 27,9 C 27,2 C 26,1 C 49 % 1013,4 hPa 0,0 l/m 2 min 0 min 751 W/m 6,4 km/h (2 Bft) 95,74 %
14.06.2019 16:56 27,9 C 27,8 C 26,1 C 49 % 1013,4 hPa 0,0 l/m 2 min 0 min 745 W/m 6,4 km/h (2 Bft) 97,87 %
14.06.2019 16:58 28,0 C 27,8 C 26,1 C 51 % 1013,4 hPa 0,0 l/m 2 min 0 min 736 W/m 6,4 km/h (2 Bft) 95,74 %
14.06.2019 17:00 28,1 C 28,3 C 26,1 C 51 % 1013,4 hPa 0,0 l/m 2 min 0 min 722 W/m 6,4 km/h (2 Bft) 95,74 %
14.06.2019 17:02 28,1 C 28,9 C 26,1 C 53 % 1013,4 hPa 0,0 l/m 2 min 0 min 716 W/m 3,2 km/h (1 Bft) 93,48 %
14.06.2019 17:04 28,2 C 28,3 C 25,6 C 54 % 1013,3 hPa 0,0 l/m 2 min 0 min 695 W/m 6,4 km/h (2 Bft) 93,62 %
14.06.2019 17:06 28,2 C 28,3 C 25,6 C 52 % 1013,2 hPa 0,0 l/m 2 min 0 min 607 W/m 9,7 km/h (2 Bft) 93,62 %
14.06.2019 17:08 28,3 C 28,3 C 25,6 C 56 % 1013,2 hPa 0,0 l/m 2 min 0 min 722 W/m 6,4 km/h (2 Bft) 95,74 %
14.06.2019 17:10 28,4 C 28,3 C 25,6 C 52 % 1013,1 hPa 0,0 l/m 2 min 0 min 506 W/m 6,4 km/h (2 Bft) 93,62 %
14.06.2019 17:12 28,4 C 28,3 C 25,6 C 53 % 1013,0 hPa 0,0 l/m 2 min 0 min 624 W/m 9,7 km/h (2 Bft) 95,74 %
14.06.2019 17:14 28,5 C 28,3 C 25,6 C 51 % 1013,0 hPa 0,0 l/m 2 min 0 min 635 W/m 3,2 km/h (1 Bft) 93,62 %
14.06.2019 17:16 28,6 C 28,9 C 26,1 C 52 % 1013,0 hPa 0,0 l/m 2 min 0 min 667 W/m 6,4 km/h (2 Bft) 93,48 %
14.06.2019 17:18 28,6 C 28,9 C 26,1 C 50 % 1013,0 hPa 0,0 l/m 2 min 0 min 700 W/m 9,7 km/h (2 Bft) 93,62 %
14.06.2019 17:20 28,7 C 28,9 C 26,1 C 53 % 1013,1 hPa 0,0 l/m 2 min 0 min 646 W/m 6,4 km/h (2 Bft) 91,49 %
14.06.2019 17:22 28,7 C 28,3 C 26,1 C 52 % 1013,0 hPa 0,0 l/m 2 min 0 min 564 W/m 6,4 km/h (2 Bft) 93,62 %
14.06.2019 17:24 28,7 C 27,8 C 25,6 C 49 % 1013,0 hPa 0,0 l/m 0 min 0 min 308 W/m 6,4 km/h (2 Bft) 93,62 %
14.06.2019 17:26 28,7 C 27,8 C 25,6 C 48 % 1013,0 hPa 0,0 l/m 2 min 0 min 392 W/m 9,7 km/h (2 Bft) 93,62 %
14.06.2019 17:28 28,7 C 27,8 C 25,6 C 50 % 1013,0 hPa 0,0 l/m 2 min 0 min 658 W/m 6,4 km/h (2 Bft) 89,13 %
14.06.2019 17:30 28,7 C 28,3 C 26,1 C 50 % 1012,9 hPa 0,0 l/m 2 min 0 min 728 W/m 9,7 km/h (2 Bft) 93,62 %
14.06.2019 17:32 28,7 C 28,3 C 26,7 C 50 % 1012,9 hPa 0,0 l/m 2 min 0 min 736 W/m 9,7 km/h (2 Bft) 93,62 %
14.06.2019 17:34 28,8 C 28,3 C 26,1 C 48 % 1012,9 hPa 0,0 l/m 2 min 0 min 679 W/m 6,4 km/h (2 Bft) 93,62 %
14.06.2019 17:36 28,8 C 28,3 C 26,1 C 50 % 1012,9 hPa 0,0 l/m 2 min 0 min 687 W/m 3,2 km/h (1 Bft) 93,62 %
14.06.2019 17:38 28,8 C 28,9 C 26,1 C 53 % 1012,9 hPa 0,0 l/m 2 min 0 min 664 W/m 6,4 km/h (2 Bft) 95,65 %
14.06.2019 17:40 28,9 C 28,9 C 25,6 C 51 % 1012,9 hPa 0,0 l/m 2 min 0 min 615 W/m 6,4 km/h (2 Bft) 97,87 %
14.06.2019 17:42 28,9 C 28,3 C 25,6 C 52 % 1012,9 hPa 0,0 l/m 2 min 0 min 545 W/m 9,7 km/h (2 Bft) 95,74 %
14.06.2019 17:44 28,9 C 28,3 C 25,6 C 53 % 1012,9 hPa 0,0 l/m 2 min 0 min 467 W/m 6,4 km/h (2 Bft) 97,87 %
14.06.2019 17:46 28,9 C 27,8 C 25,6 C 52 % 1012,8 hPa 0,0 l/m 0 min 0 min 193 W/m 6,4 km/h (2 Bft) 95,74 %
14.06.2019 17:48 28,8 C 27,8 C 25,6 C 53 % 1012,9 hPa 0,0 l/m 2 min 0 min 391 W/m 6,4 km/h (2 Bft) 97,87 %
14.06.2019 17:50 28,8 C 27,8 C 25,6 C 53 % 1012,8 hPa 0,0 l/m 2 min 0 min 633 W/m 6,4 km/h (2 Bft) 93,48 %
14.06.2019 17:52 28,8 C 27,2 C 25,6 C 48 % 1012,8 hPa 0,0 l/m 2 min 0 min 600 W/m 9,7 km/h (2 Bft) 95,74 %
14.06.2019 17:54 28,8 C 27,8 C 25,6 C 48 % 1012,8 hPa 0,0 l/m 2 min 0 min 602 W/m 6,4 km/h (2 Bft) 97,87 %
14.06.2019 17:56 28,8 C 27,8 C 25,6 C 49 % 1012,8 hPa 0,0 l/m 2 min 0 min 512 W/m 6,4 km/h (2 Bft) 97,87 %
14.06.2019 17:58 28,8 C 27,2 C 25,6 C 50 % 1012,8 hPa 0,0 l/m 2 min 0 min 512 W/m 6,4 km/h (2 Bft) 93,62 %
14.06.2019 18:00 28,7 C 27,2 C 25,0 C 49 % 1012,8 hPa 0,0 l/m 2 min 0 min 504 W/m 6,4 km/h (2 Bft) 97,87 %
14.06.2019 18:02 28,7 C 27,2 C 25,0 C 52 % 1012,7 hPa 0,0 l/m 2 min 0 min 508 W/m 3,2 km/h (1 Bft) 95,65 %
14.06.2019 18:04 28,6 C 27,2 C 25,0 C 52 % 1012,7 hPa 0,0 l/m 2 min 0 min 435 W/m 6,4 km/h (2 Bft) 97,87 %
14.06.2019 18:08 28,6 C 26,7 C 24,4 C 51 % 1012,8 hPa 0,0 l/m 4 min 0 min 275 W/m 3,2 km/h (1 Bft) 97,87 %
14.06.2019 18:10 28,5 C 26,7 C 24,4 C 51 % 1012,7 hPa 0,0 l/m 0 min 0 min 262 W/m 3,2 km/h (1 Bft) 100,00 %
14.06.2019 18:12 28,4 C 26,1 C 24,4 C 50 % 1012,7 hPa 0,0 l/m 2 min 0 min 268 W/m 6,4 km/h (2 Bft) 100,00 %
14.06.2019 18:14 28,3 C 26,1 C 24,4 C 52 % 1012,7 hPa 0,0 l/m 2 min 0 min 316 W/m 6,4 km/h (2 Bft) 100,00 %
14.06.2019 18:16 28,2 C 26,1 C 24,4 C 51 % 1012,6 hPa 0,0 l/m 2 min 0 min 406 W/m 6,4 km/h (2 Bft) 100,00 %
14.06.2019 18:18 28,2 C 26,7 C 24,4 C 52 % 1012,6 hPa 0,0 l/m 2 min 0 min 421 W/m 6,4 km/h (2 Bft) 100,00 %
14.06.2019 18:20 28,1 C 26,7 C 24,4 C 53 % 1012,7 hPa 0,0 l/m 2 min 0 min 448 W/m 6,4 km/h (2 Bft) 100,00 %
14.06.2019 18:22 28,0 C 26,7 C 24,4 C 51 % 1012,6 hPa 0,0 l/m 2 min 0 min 386 W/m 3,2 km/h (1 Bft) 100,00 %
14.06.2019 18:24 27,9 C 27,2 C 24,4 C 52 % 1012,6 hPa 0,0 l/m 2 min 0 min 350 W/m 0,0 km/h (0 Bft) 100,00 %
14.06.2019 18:26 27,9 C 26,7 C 24,4 C 52 % 1012,6 hPa 0,0 l/m 2 min 0 min 287 W/m 6,4 km/h (2 Bft) 100,00 %
14.06.2019 18:28 27,8 C 26,7 C 23,9 C 51 % 1012,6 hPa 0,0 l/m 0 min 0 min 231 W/m 3,2 km/h (1 Bft) 100,00 %
14.06.2019 18:30 27,8 C 26,7 C 23,9 C 49 % 1012,6 hPa 0,0 l/m 0 min 0 min 199 W/m 9,7 km/h (2 Bft) 97,87 %
14.06.2019 18:32 27,8 C 26,1 C 23,9 C 51 % 1012,6 hPa 0,0 l/m 0 min 0 min 219 W/m 6,4 km/h (2 Bft) 100,00 %
14.06.2019 18:34 27,7 C 26,1 C 23,3 C 54 % 1012,6 hPa 0,0 l/m 2 min 0 min 240 W/m 6,4 km/h (2 Bft) 100,00 %
14.06.2019 18:36 27,7 C 26,1 C 23,9 C 54 % 1012,5 hPa 0,0 l/m 2 min 0 min 247 W/m 3,2 km/h (1 Bft) 100,00 %
14.06.2019 18:38 27,6 C 26,1 C 23,9 C 55 % 1012,5 hPa 0,0 l/m 2 min 0 min 260 W/m 3,2 km/h (1 Bft) 100,00 %
14.06.2019 18:40 27,5 C 26,1 C 23,9 C 56 % 1012,5 hPa 0,0 l/m 0 min 0 min 223 W/m 0,0 km/h (0 Bft) 97,87 %
14.06.2019 18:42 27,4 C 26,1 C 23,9 C 57 % 1012,5 hPa 0,0 l/m 0 min 0 min 210 W/m 3,2 km/h (1 Bft) 100,00 %
14.06.2019 18:44 27,3 C 26,1 C 23,9 C 54 % 1012,5 hPa 0,0 l/m 0 min 0 min 223 W/m 6,4 km/h (2 Bft) 100,00 %
14.06.2019 18:46 27,2 C 26,1 C 23,9 C 56 % 1012,6 hPa 0,0 l/m 2 min 0 min 311 W/m 3,2 km/h (1 Bft) 100,00 %
14.06.2019 18:48 27,1 C 26,7 C 24,4 C 55 % 1012,6 hPa 0,0 l/m 2 min 0 min 373 W/m 6,4 km/h (2 Bft) 100,00 %
14.06.2019 18:50 27,1 C 26,7 C 24,4 C 54 % 1012,5 hPa 0,0 l/m 2 min 0 min 447 W/m 6,4 km/h (2 Bft) 97,87 %
14.06.2019 18:52 27,1 C 27,2 C 24,4 C 54 % 1012,5 hPa 0,0 l/m 2 min 0 min 434 W/m 6,4 km/h (2 Bft) 97,87 %
14.06.2019 18:54 27,1 C 27,2 C 24,4 C 54 % 1012,6 hPa 0,0 l/m 2 min 0 min 396 W/m 9,7 km/h (2 Bft) 100,00 %
14.06.2019 18:56 27,1 C 27,2 C 24,4 C 56 % 1012,6 hPa 0,0 l/m 2 min 0 min 361 W/m 3,2 km/h (1 Bft) 100,00 %
14.06.2019 18:58 27,1 C 27,2 C 24,4 C 56 % 1012,5 hPa 0,0 l/m 2 min 0 min 402 W/m 3,2 km/h (1 Bft) 100,00 %
14.06.2019 19:00 27,1 C 27,2 C 24,4 C 57 % 1012,6 hPa 0,0 l/m 2 min 0 min 386 W/m 6,4 km/h (2 Bft) 97,83 %
14.06.2019 19:02 27,1 C 27,2 C 24,4 C 54 % 1012,6 hPa 0,0 l/m 2 min 0 min 383 W/m 6,4 km/h (2 Bft) 100,00 %
14.06.2019 19:04 27,1 C 26,7 C 24,4 C 57 % 1012,5 hPa 0,0 l/m 2 min 0 min 333 W/m 3,2 km/h (1 Bft) 100,00 %
14.06.2019 19:06 27,1 C 26,7 C 23,9 C 53 % 1012,5 hPa 0,0 l/m 2 min 0 min 328 W/m 12,9 km/h (3 Bft) 97,87 %
14.06.2019 19:08 27,1 C 26,7 C 23,9 C 55 % 1012,5 hPa 0,0 l/m 2 min 0 min 314 W/m 6,4 km/h (2 Bft) 98,18 %
14.06.2019 19:10 27,1 C 26,7 C 23,3 C 57 % 1012,4 hPa 0,0 l/m 2 min 0 min 326 W/m 3,2 km/h (1 Bft) 100,00 %
14.06.2019 19:12 27,1 C 26,7 C 23,3 C 57 % 1012,5 hPa 0,0 l/m 2 min 0 min 333 W/m 3,2 km/h (1 Bft) 100,00 %
14.06.2019 19:14 27,1 C 26,7 C 23,3 C 54 % 1012,5 hPa 0,0 l/m 2 min 0 min 272 W/m 6,4 km/h (2 Bft) 100,00 %
14.06.2019 19:16 27,1 C 26,7 C 23,3 C 56 % 1012,5 hPa 0,0 l/m 2 min 0 min 271 W/m 3,2 km/h (1 Bft) 100,00 %
14.06.2019 19:18 27,1 C 26,7 C 23,3 C 56 % 1012,4 hPa 0,0 l/m 2 min 0 min 273 W/m 3,2 km/h (1 Bft) 100,00 %
14.06.2019 19:20 27,1 C 26,7 C 23,3 C 56 % 1012,5 hPa 0,0 l/m 2 min 0 min 308 W/m 6,4 km/h (2 Bft) 100,00 %
14.06.2019 19:22 27,1 C 26,7 C 22,8 C 54 % 1012,5 hPa 0,0 l/m 2 min 0 min 310 W/m 3,2 km/h (1 Bft) 100,00 %
14.06.2019 19:24 27,0 C 26,7 C 22,8 C 56 % 1012,5 hPa 0,0 l/m 2 min 0 min 301 W/m 3,2 km/h (1 Bft) 100,00 %
14.06.2019 19:26 27,0 C 26,7 C 22,8 C 56 % 1012,6 hPa 0,0 l/m 2 min 0 min 293 W/m 3,2 km/h (1 Bft) 97,83 %
14.06.2019 19:28 27,0 C 26,7 C 22,8 C 55 % 1012,5 hPa 0,0 l/m 2 min 0 min 290 W/m 9,7 km/h (2 Bft) 100,00 %
14.06.2019 19:30 26,9 C 26,7 C 22,8 C 54 % 1012,6 hPa 0,0 l/m 2 min 0 min 233 W/m 9,7 km/h (2 Bft) 95,74 %
14.06.2019 19:32 26,9 C 26,1 C 22,8 C 54 % 1012,5 hPa 0,0 l/m 0 min 0 min 153 W/m 3,2 km/h (1 Bft) 97,87 %
14.06.2019 19:34 26,9 C 26,1 C 22,8 C 56 % 1012,4 hPa 0,0 l/m 0 min 0 min 148 W/m 6,4 km/h (2 Bft) 97,87 %
14.06.2019 19:36 26,9 C 26,1 C 22,8 C 54 % 1012,4 hPa 0,0 l/m 2 min 0 min 161 W/m 3,2 km/h (1 Bft) 97,87 %
14.06.2019 19:38 26,9 C 26,1 C 22,8 C 55 % 1012,4 hPa 0,0 l/m 2 min 0 min 241 W/m 6,4 km/h (2 Bft) 97,96 %
14.06.2019 19:40 26,9 C 25,6 C 22,8 C 55 % 1012,3 hPa 0,0 l/m 2 min 0 min 257 W/m 9,7 km/h (2 Bft) 97,87 %
14.06.2019 19:42 26,8 C 25,6 C 22,8 C 55 % 1012,3 hPa 0,0 l/m 0 min 0 min 102 W/m 0,0 km/h (0 Bft) 93,62 %
14.06.2019 19:44 26,8 C 25,0 C 22,8 C 56 % 1012,3 hPa 0,0 l/m 0 min 0 min 119 W/m 6,4 km/h (2 Bft) 97,87 %
14.06.2019 19:46 26,8 C 25,0 C 22,8 C 55 % 1012,3 hPa 0,0 l/m 2 min 0 min 158 W/m 6,4 km/h (2 Bft) 97,87 %
14.06.2019 19:48 26,7 C 25,0 C 22,8 C 55 % 1012,3 hPa 0,0 l/m 0 min 0 min 106 W/m 6,4 km/h (2 Bft) 97,87 %
14.06.2019 19:50 26,6 C 25,0 C 22,8 C 56 % 1012,2 hPa 0,0 l/m 0 min 0 min 125 W/m 3,2 km/h (1 Bft) 95,65 %
14.06.2019 19:52 26,6 C 25,0 C 22,8 C 56 % 1012,2 hPa 0,0 l/m 0 min 0 min 124 W/m 0,0 km/h (0 Bft) 97,87 %
14.06.2019 19:54 26,4 C 25,0 C 22,8 C 57 % 1012,2 hPa 0,0 l/m 0 min 0 min 123 W/m 3,2 km/h (1 Bft) 97,87 %
14.06.2019 19:56 26,4 C 24,4 C 22,8 C 57 % 1012,2 hPa 0,0 l/m 0 min 0 min 112 W/m 6,4 km/h (2 Bft) 97,87 %
14.06.2019 19:58 26,3 C 24,4 C 22,8 C 57 % 1012,2 hPa 0,0 l/m 0 min 0 min 101 W/m 0,0 km/h (0 Bft) 97,87 %
14.06.2019 20:00 26,2 C 24,4 C 22,8 C 58 % 1012,2 hPa 0,0 l/m 0 min 0 min 91 W/m 3,2 km/h (1 Bft) 95,74 %
14.06.2019 20:02 26,2 C 24,4 C 22,2 C 58 % 1012,2 hPa 0,0 l/m 0 min 0 min 82 W/m 6,4 km/h (2 Bft) 97,83 %
14.06.2019 20:04 26,1 C 24,4 C 22,2 C 58 % 1012,2 hPa 0,0 l/m 0 min 0 min 75 W/m 0,0 km/h (0 Bft) 97,87 %
14.06.2019 20:06 26,0 C 23,9 C 22,2 C 58 % 1012,1 hPa 0,0 l/m 0 min 0 min 74 W/m 3,2 km/h (1 Bft) 97,87 %
14.06.2019 20:08 26,0 C 23,9 C 22,2 C 59 % 1012,2 hPa 0,0 l/m 0 min 0 min 76 W/m 6,4 km/h (2 Bft) 95,74 %
14.06.2019 20:10 25,9 C 23,9 C 22,2 C 60 % 1012,2 hPa 0,0 l/m 0 min 0 min 78 W/m 6,4 km/h (2 Bft) 95,74 %
14.06.2019 20:12 25,7 C 23,9 C 22,2 C 57 % 1012,1 hPa 0,0 l/m 0 min 0 min 82 W/m 19,3 km/h (3 Bft) 97,83 %
14.06.2019 20:14 25,7 C 23,9 C 22,2 C 57 % 1012,1 hPa 0,0 l/m 0 min 0 min 83 W/m 6,4 km/h (2 Bft) 97,87 %
14.06.2019 20:16 25,6 C 23,9 C 22,2 C 57 % 1012,1 hPa 0,0 l/m 0 min 0 min 81 W/m 3,2 km/h (1 Bft) 97,87 %
14.06.2019 20:18 25,5 C 23,9 C 22,2 C 58 % 1012,1 hPa 0,0 l/m 0 min 0 min 83 W/m 0,0 km/h (0 Bft) 93,62 %
14.06.2019 20:20 25,4 C 23,9 C 22,2 C 59 % 1012,1 hPa 0,0 l/m 0 min 0 min 84 W/m 3,2 km/h (1 Bft) 93,62 %
14.06.2019 20:22 25,3 C 23,9 C 22,2 C 58 % 1012,2 hPa 0,0 l/m 0 min 0 min 83 W/m 3,2 km/h (1 Bft) 95,74 %
14.06.2019 20:24 25,3 C 23,3 C 21,7 C 59 % 1012,1 hPa 0,0 l/m 0 min 0 min 80 W/m 3,2 km/h (1 Bft) 97,83 %
14.06.2019 20:26 25,2 C 23,3 C 21,7 C 59 % 1012,1 hPa 0,0 l/m 0 min 0 min 77 W/m 0,0 km/h (0 Bft) 97,87 %
14.06.2019 20:28 25,2 C 23,3 C 21,7 C 59 % 1012,1 hPa 0,0 l/m 0 min 0 min 73 W/m 3,2 km/h (1 Bft) 95,74 %
14.06.2019 20:30 25,1 C 23,3 C 21,7 C 59 % 1012,0 hPa 0,0 l/m 0 min 0 min 70 W/m 0,0 km/h (0 Bft) 95,74 %
14.06.2019 20:32 25,1 C 23,3 C 21,7 C 59 % 1012,0 hPa 0,0 l/m 0 min 0 min 69 W/m 0,0 km/h (0 Bft) 95,74 %
14.06.2019 20:34 25,1 C 23,3 C 21,7 C 59 % 1012,0 hPa 0,0 l/m 0 min 0 min 69 W/m 9,7 km/h (2 Bft) 93,62 %
14.06.2019 20:36 24,9 C 23,3 C 21,7 C 59 % 1012,0 hPa 0,0 l/m 0 min 0 min 69 W/m 0,0 km/h (0 Bft) 95,65 %
14.06.2019 20:38 24,9 C 23,3 C 21,7 C 59 % 1012,0 hPa 0,0 l/m 0 min 0 min 69 W/m 6,4 km/h (2 Bft) 93,62 %
14.06.2019 20:40 24,8 C 23,3 C 21,7 C 60 % 1012,0 hPa 0,0 l/m 0 min 0 min 71 W/m 9,7 km/h (2 Bft) 95,74 %
14.06.2019 20:42 24,8 C 23,3 C 21,7 C 60 % 1011,9 hPa 0,0 l/m 0 min 0 min 72 W/m 0,0 km/h (0 Bft) 100,00 %
14.06.2019 20:44 24,8 C 23,3 C 21,7 C 60 % 1011,9 hPa 0,0 l/m 2 min 0 min 71 W/m 3,2 km/h (1 Bft) 97,83 %
14.06.2019 20:46 24,7 C 23,3 C 21,1 C 60 % 1011,9 hPa 0,0 l/m 2 min 0 min 68 W/m 3,2 km/h (1 Bft) 93,22 %
14.06.2019 20:48 24,7 C 23,3 C 21,1 C 59 % 1011,9 hPa 0,0 l/m 0 min 0 min 62 W/m 6,4 km/h (2 Bft) 95,74 %
14.06.2019 20:50 24,7 C 23,3 C 21,1 C 59 % 1012,0 hPa 0,0 l/m 0 min 0 min 56 W/m 3,2 km/h (1 Bft) 94,29 %
14.06.2019 20:52 24,6 C 22,8 C 21,1 C 59 % 1011,9 hPa 0,0 l/m 0 min 0 min 53 W/m 3,2 km/h (1 Bft) 95,74 %
14.06.2019 20:54 24,6 C 22,8 C 21,1 C 60 % 1012,1 hPa 0,0 l/m 0 min 0 min 49 W/m 6,4 km/h (2 Bft) 95,74 %
14.06.2019 20:56 24,5 C 22,8 C 21,1 C 60 % 1012,0 hPa 0,0 l/m 0 min 0 min 46 W/m 6,4 km/h (2 Bft) 93,48 %
14.06.2019 20:58 24,4 C 22,8 C 21,1 C 60 % 1012,0 hPa 0,0 l/m 0 min 0 min 45 W/m 3,2 km/h (1 Bft) 96,61 %
14.06.2019 21:00 24,3 C 22,8 C 21,1 C 60 % 1012,0 hPa 0,0 l/m 0 min 0 min 43 W/m 6,4 km/h (2 Bft) 94,29 %
14.06.2019 21:02 24,3 C 22,8 C 21,1 C 60 % 1012,1 hPa 0,0 l/m 0 min 0 min 41 W/m 6,4 km/h (2 Bft) 93,62 %
14.06.2019 21:04 24,2 C 22,8 C 21,1 C 60 % 1012,1 hPa 0,0 l/m 0 min 0 min 39 W/m 3,2 km/h (1 Bft) 96,55 %
14.06.2019 21:06 24,2 C 22,2 C 21,1 C 60 % 1012,0 hPa 0,0 l/m 0 min 0 min 36 W/m 3,2 km/h (1 Bft) 93,62 %
14.06.2019 21:08 24,1 C 22,2 C 21,1 C 60 % 1012,0 hPa 0,0 l/m 0 min 0 min 31 W/m 6,4 km/h (2 Bft) 93,62 %
14.06.2019 21:10 24,1 C 22,2 C 21,1 C 60 % 1012,0 hPa 0,0 l/m 0 min 0 min 28 W/m 12,9 km/h (3 Bft) 97,14 %
14.06.2019 21:12 24,0 C 22,2 C 20,6 C 60 % 1012,0 hPa 0,0 l/m 0 min 0 min 25 W/m 6,4 km/h (2 Bft) 95,74 %
14.06.2019 21:14 23,9 C 22,2 C 20,6 C 60 % 1012,0 hPa 0,0 l/m 0 min 0 min 21 W/m 6,4 km/h (2 Bft) 94,92 %
14.06.2019 21:16 23,9 C 22,2 C 20,6 C 60 % 1012,0 hPa 0,0 l/m 0 min 0 min 19 W/m 6,4 km/h (2 Bft) 97,83 %
14.06.2019 21:18 23,8 C 22,2 C 20,6 C 61 % 1012,0 hPa 0,0 l/m 0 min 0 min 17 W/m 6,4 km/h (2 Bft) 97,22 %
14.06.2019 21:20 23,8 C 22,2 C 20,6 C 61 % 1011,9 hPa 0,0 l/m 0 min 0 min 15 W/m 3,2 km/h (1 Bft) 100,00 %
14.06.2019 21:22 23,7 C 21,7 C 20,6 C 61 % 1011,9 hPa 0,0 l/m 0 min 0 min 13 W/m 0,0 km/h (0 Bft) 100,00 %
14.06.2019 21:24 23,7 C 21,7 C 20,6 C 61 % 1011,9 hPa 0,0 l/m 0 min 0 min 12 W/m 3,2 km/h (1 Bft) 100,00 %
14.06.2019 21:26 23,7 C 21,7 C 20,6 C 61 % 1011,9 hPa 0,0 l/m 0 min 0 min 11 W/m 3,2 km/h (1 Bft) 97,87 %
14.06.2019 21:28 23,6 C 21,7 C 20,6 C 61 % 1012,0 hPa 0,0 l/m 0 min 0 min 11 W/m 3,2 km/h (1 Bft) 97,14 %
14.06.2019 21:30 23,6 C 21,7 C 20,6 C 62 % 1011,9 hPa 0,0 l/m 0 min 0 min 9 W/m 3,2 km/h (1 Bft) 100,00 %
14.06.2019 21:32 23,5 C 21,7 C 20,6 C 62 % 1011,9 hPa 0,0 l/m 0 min 0 min 9 W/m 3,2 km/h (1 Bft) 100,00 %
14.06.2019 21:34 23,5 C 21,7 C 20,6 C 61 % 1011,8 hPa 0,0 l/m 0 min 0 min 8 W/m 3,2 km/h (1 Bft) 100,00 %
14.06.2019 21:36 23,4 C 21,7 C 20,6 C 61 % 1011,8 hPa 0,0 l/m 0 min 0 min 7 W/m 3,2 km/h (1 Bft) 100,00 %
14.06.2019 21:38 23,4 C 21,1 C 20,0 C 62 % 1011,8 hPa 0,0 l/m 0 min 0 min 7 W/m 9,7 km/h (2 Bft) 100,00 %
14.06.2019 21:40 23,3 C 21,1 C 20,0 C 62 % 1011,7 hPa 0,0 l/m 0 min 0 min 5 W/m 3,2 km/h (1 Bft) 100,00 %
14.06.2019 21:42 23,3 C 21,1 C 20,0 C 61 % 1011,8 hPa 0,0 l/m 0 min 0 min 5 W/m 6,4 km/h (2 Bft) 100,00 %
14.06.2019 21:44 23,2 C 21,7 C 20,6 C 61 % 1011,8 hPa 0,0 l/m 0 min 0 min 5 W/m 9,7 km/h (2 Bft) 100,00 %
14.06.2019 21:46 23,2 C 21,7 C 20,6 C 62 % 1011,8 hPa 0,0 l/m 0 min 0 min 5 W/m 6,4 km/h (2 Bft) 100,00 %
14.06.2019 21:48 23,1 C 21,7 C 20,6 C 62 % 1011,8 hPa 0,0 l/m 0 min 0 min 5 W/m 3,2 km/h (1 Bft) 100,00 %
14.06.2019 21:50 23,1 C 21,7 C 20,0 C 62 % 1011,8 hPa 0,0 l/m 0 min 0 min 0 W/m 6,4 km/h (2 Bft) 100,00 %
14.06.2019 21:52 23,0 C 21,7 C 20,0 C 62 % 1011,9 hPa 0,0 l/m 0 min 0 min 0 W/m 6,4 km/h (2 Bft) 97,87 %
14.06.2019 21:54 22,9 C 21,1 C 20,0 C 62 % 1011,9 hPa 0,0 l/m 0 min 0 min 0 W/m 6,4 km/h (2 Bft) 100,00 %
14.06.2019 21:56 22,9 C 21,1 C 20,0 C 62 % 1011,9 hPa 0,0 l/m 0 min 0 min 0 W/m 6,4 km/h (2 Bft) 100,00 %
14.06.2019 21:58 22,9 C 21,1 C 20,6 C 62 % 1011,9 hPa 0,0 l/m 0 min 0 min 0 W/m 9,7 km/h (2 Bft) 100,00 %
14.06.2019 22:00 22,8 C 21,1 C 20,0 C 62 % 1012,0 hPa 0,0 l/m 0 min 0 min 0 W/m 3,2 km/h (1 Bft) 100,00 %
14.06.2019 22:02 22,8 C 21,1 C 20,0 C 62 % 1012,0 hPa 0,0 l/m 0 min 0 min 0 W/m 6,4 km/h (2 Bft) 100,00 %
14.06.2019 22:04 22,8 C 21,1 C 20,0 C 62 % 1012,0 hPa 0,0 l/m 0 min 0 min 0 W/m 3,2 km/h (1 Bft) 100,00 %
14.06.2019 22:06 22,7 C 21,1 C 20,0 C 62 % 1011,9 hPa 0,0 l/m 0 min 0 min 0 W/m 6,4 km/h (2 Bft) 100,00 %
14.06.2019 22:08 22,7 C 21,1 C 20,0 C 62 % 1011,9 hPa 0,0 l/m 0 min 0 min 0 W/m 6,4 km/h (2 Bft) 97,87 %
14.06.2019 22:10 22,7 C 21,1 C 20,0 C 63 % 1012,0 hPa 0,0 l/m 0 min 0 min 0 W/m 3,2 km/h (1 Bft) 97,87 %
14.06.2019 22:12 22,6 C 21,1 C 20,0 C 63 % 1012,1 hPa 0,0 l/m 0 min 0 min 0 W/m 3,2 km/h (1 Bft) 98,31 %
14.06.2019 22:14 22,6 C 21,1 C 20,0 C 63 % 1012,1 hPa 0,0 l/m 0 min 0 min 0 W/m 6,4 km/h (2 Bft) 97,14 %
14.06.2019 22:16 22,6 C 21,1 C 20,0 C 62 % 1012,0 hPa 0,0 l/m 0 min 0 min 0 W/m 6,4 km/h (2 Bft) 98,28 %
14.06.2019 22:18 22,6 C 21,1 C 20,0 C 62 % 1012,0 hPa 0,0 l/m 0 min 0 min 0 W/m 9,7 km/h (2 Bft) 97,14 %
14.06.2019 22:20 22,5 C 21,1 C 20,0 C 63 % 1012,1 hPa 0,0 l/m 0 min 0 min 0 W/m 9,7 km/h (2 Bft) 96,61 %
14.06.2019 22:22 22,5 C 21,1 C 20,0 C 64 % 1012,1 hPa 0,0 l/m 0 min 0 min 0 W/m 6,4 km/h (2 Bft) 97,87 %
14.06.2019 22:24 22,4 C 21,1 C 20,0 C 64 % 1012,0 hPa 0,0 l/m 0 min 0 min 0 W/m 6,4 km/h (2 Bft) 97,87 %
14.06.2019 22:26 22,4 C 20,6 C 20,0 C 64 % 1012,0 hPa 0,0 l/m 0 min 0 min 0 W/m 3,2 km/h (1 Bft) 97,83 %
14.06.2019 22:28 22,4 C 20,6 C 20,0 C 65 % 1011,9 hPa 0,0 l/m 0 min 0 min 0 W/m 3,2 km/h (1 Bft) 97,87 %
14.06.2019 22:30 22,4 C 20,6 C 19,4 C 66 % 1011,8 hPa 0,0 l/m 0 min 0 min 0 W/m 6,4 km/h (2 Bft) 97,87 %
14.06.2019 22:32 22,3 C 20,6 C 19,4 C 66 % 1011,9 hPa 0,0 l/m 0 min 0 min 0 W/m 3,2 km/h (1 Bft) 97,14 %
14.06.2019 22:34 22,3 C 20,6 C 19,4 C 65 % 1011,9 hPa 0,0 l/m 0 min 0 min 0 W/m 6,4 km/h (2 Bft) 98,31 %
14.06.2019 22:36 22,2 C 20,6 C 19,4 C 65 % 1012,0 hPa 0,0 l/m 0 min 0 min 0 W/m 9,7 km/h (2 Bft) 93,62 %
14.06.2019 22:38 22,2 C 20,6 C 19,4 C 64 % 1011,9 hPa 0,0 l/m 0 min 0 min 0 W/m 6,4 km/h (2 Bft) 97,83 %
14.06.2019 22:40 22,2 C 20,6 C 19,4 C 64 % 1011,9 hPa 0,0 l/m 0 min 0 min 0 W/m 6,4 km/h (2 Bft) 97,87 %
14.06.2019 22:42 22,1 C 20,6 C 19,4 C 64 % 1011,9 hPa 0,0 l/m 0 min 0 min 0 W/m 3,2 km/h (1 Bft) 94,29 %
14.06.2019 22:44 22,1 C 20,6 C 19,4 C 64 % 1011,9 hPa 0,0 l/m 0 min 0 min 0 W/m 6,4 km/h (2 Bft) 98,31 %
14.06.2019 22:46 22,1 C 20,6 C 19,4 C 65 % 1011,9 hPa 0,0 l/m 0 min 0 min 0 W/m 3,2 km/h (1 Bft) 97,87 %
14.06.2019 22:48 22,1 C 20,6 C 19,4 C 65 % 1011,9 hPa 0,0 l/m 0 min 0 min 0 W/m 0,0 km/h (0 Bft) 97,87 %
14.06.2019 22:50 22,1 C 20,6 C 19,4 C 65 % 1011,7 hPa 0,0 l/m 0 min 0 min 0 W/m 0,0 km/h (0 Bft) 97,83 %
14.06.2019 22:52 22,0 C 20,6 C 19,4 C 65 % 1011,8 hPa 0,0 l/m 0 min 0 min 0 W/m 3,2 km/h (1 Bft) 95,74 %
14.06.2019 22:54 22,0 C 20,6 C 19,4 C 65 % 1011,8 hPa 0,0 l/m 0 min 0 min 0 W/m 0,0 km/h (0 Bft) 100,00 %
14.06.2019 22:56 22,0 C 20,6 C 19,4 C 65 % 1011,6 hPa 0,0 l/m 0 min 0 min 0 W/m 3,2 km/h (1 Bft) 100,00 %
14.06.2019 22:58 21,9 C 20,6 C 19,4 C 66 % 1011,6 hPa 0,0 l/m 0 min 0 min 0 W/m 3,2 km/h (1 Bft) 100,00 %
14.06.2019 23:00 21,9 C 20,0 C 19,4 C 66 % 1011,6 hPa 0,0 l/m 0 min 0 min 0 W/m 6,4 km/h (2 Bft) 100,00 %
14.06.2019 23:02 21,9 C 20,6 C 19,4 C 66 % 1011,6 hPa 0,0 l/m 0 min 0 min 0 W/m 9,7 km/h (2 Bft) 97,14 %
14.06.2019 23:04 21,9 C 20,6 C 19,4 C 66 % 1011,6 hPa 0,0 l/m 0 min 0 min 0 W/m 3,2 km/h (1 Bft) 95,74 %
14.06.2019 23:06 21,8 C 20,6 C 19,4 C 67 % 1011,6 hPa 0,0 l/m 0 min 0 min 0 W/m 3,2 km/h (1 Bft) 93,48 %
14.06.2019 23:08 21,8 C 20,0 C 19,4 C 67 % 1011,6 hPa 0,0 l/m 0 min 0 min 0 W/m 3,2 km/h (1 Bft) 100,00 %
14.06.2019 23:10 21,8 C 20,0 C 19,4 C 68 % 1011,6 hPa 0,0 l/m 0 min 0 min 0 W/m 3,2 km/h (1 Bft) 100,00 %
14.06.2019 23:12 21,8 C 20,0 C 19,4 C 67 % 1011,6 hPa 0,0 l/m 0 min 0 min 0 W/m 0,0 km/h (0 Bft) 94,29 %
14.06.2019 23:14 21,7 C 20,0 C 18,9 C 68 % 1011,6 hPa 0,0 l/m 0 min 0 min 0 W/m 3,2 km/h (1 Bft) 95,74 %
14.06.2019 23:16 21,7 C 20,0 C 18,9 C 68 % 1011,5 hPa 0,0 l/m 0 min 0 min 0 W/m 3,2 km/h (1 Bft) 97,83 %
14.06.2019 23:18 21,7 C 20,0 C 18,9 C 68 % 1011,5 hPa 0,0 l/m 0 min 0 min 0 W/m 3,2 km/h (1 Bft) 100,00 %
14.06.2019 23:20 21,6 C 20,0 C 18,9 C 68 % 1011,5 hPa 0,0 l/m 0 min 0 min 0 W/m 6,4 km/h (2 Bft) 100,00 %
14.06.2019 23:22 21,6 C 20,0 C 18,9 C 68 % 1011,5 hPa 0,0 l/m 0 min 0 min 0 W/m 3,2 km/h (1 Bft) 97,87 %
14.06.2019 23:24 21,6 C 20,0 C 18,9 C 68 % 1011,5 hPa 0,0 l/m 0 min 0 min 0 W/m 3,2 km/h (1 Bft) 97,87 %
14.06.2019 23:26 21,6 C 20,0 C 18,9 C 69 % 1011,6 hPa 0,0 l/m 0 min 0 min 0 W/m 3,2 km/h (1 Bft) 97,87 %
14.06.2019 23:28 21,6 C 20,0 C 18,9 C 69 % 1011,6 hPa 0,0 l/m 0 min 0 min 0 W/m 0,0 km/h (0 Bft) 97,83 %
14.06.2019 23:30 21,6 C 20,0 C 18,9 C 69 % 1011,6 hPa 0,0 l/m 0 min 2 min 0 W/m 3,2 km/h (1 Bft) 100,00 %
14.06.2019 23:32 21,5 C 19,4 C 18,9 C 69 % 1011,6 hPa 0,0 l/m 0 min 2 min 0 W/m 3,2 km/h (1 Bft) 95,74 %
14.06.2019 23:34 21,5 C 18,9 C 18,9 C 70 % 1011,6 hPa 0,0 l/m 0 min 2 min 0 W/m 3,2 km/h (1 Bft) 97,87 %
14.06.2019 23:36 21,5 C 18,9 C 18,9 C 70 % 1011,6 hPa 0,0 l/m 0 min 2 min 0 W/m 0,0 km/h (0 Bft) 97,87 %
14.06.2019 23:38 21,4 C 18,9 C 18,9 C 70 % 1011,7 hPa 0,0 l/m 0 min 0 min 0 W/m 0,0 km/h (0 Bft) 97,87 %
14.06.2019 23:40 21,4 C 18,9 C 18,3 C 70 % 1011,7 hPa 0,0 l/m 0 min 0 min 0 W/m 0,0 km/h (0 Bft) 100,00 %
14.06.2019 23:42 21,4 C 18,9 C 18,3 C 71 % 1011,7 hPa 0,0 l/m 0 min 0 min 0 W/m 0,0 km/h (0 Bft) 95,74 %
14.06.2019 23:44 21,4 C 18,9 C 18,3 C 71 % 1011,8 hPa 0,0 l/m 0 min 0 min 0 W/m 0,0 km/h (0 Bft) 95,74 %
14.06.2019 23:46 21,4 C 18,9 C 18,3 C 71 % 1011,7 hPa 0,0 l/m 0 min 0 min 0 W/m 3,2 km/h (1 Bft) 95,74 %
14.06.2019 23:48 21,4 C 18,9 C 18,3 C 72 % 1011,7 hPa 0,0 l/m 0 min 0 min 0 W/m 0,0 km/h (0 Bft) 95,74 %
14.06.2019 23:50 21,3 C 18,9 C 18,3 C 71 % 1011,7 hPa 0,0 l/m 0 min 2 min 0 W/m 0,0 km/h (0 Bft) 95,74 %
14.06.2019 23:52 21,3 C 18,9 C 18,3 C 71 % 1011,8 hPa 0,0 l/m 0 min 2 min 0 W/m 0,0 km/h (0 Bft) 95,65 %
14.06.2019 23:54 21,3 C 18,3 C 17,2 C 71 % 1011,8 hPa 0,0 l/m 0 min 2 min 0 W/m 0,0 km/h (0 Bft) 95,74 %
14.06.2019 23:56 21,3 C 17,8 C 17,2 C 72 % 1011,8 hPa 0,0 l/m 0 min 2 min 0 W/m 0,0 km/h (0 Bft) 93,62 %
14.06.2019 23:58 21,2 C 17,8 C 17,2 C 73 % 1011,9 hPa 0,0 l/m 0 min 2 min 0 W/m 0,0 km/h (0 Bft) 95,74 %
_ Min-Zeit 03:58 03:20 03:16 14:10 23:16 - - - - 00:02 00:02
Minimum _ 12,1 C 10,0 C 10,0 C 47 % 1011,5 hPa - - - - 0,0 km/h (0 Bft) 10,00 %
_ Max-Zeit 17:40 13:42 14:38 07:10 12:00 00:16 18:08 00:08 12:46 11:54 00:30
Maximum _ 28,9 C 33,3 C 36,7 C 97 % 1015,5 hPa 0,4 l/m 4 min 4 min 1042 W/m 22,5 km/h
O-SO (4 Bft)
100,00 %
Durchschnitt _ 20,2 C 20,7 C 19,7 C 72 % 1013,7 hPa #2,0 l/m #8:28 h #1:04 h 417 W/m 5,3 km/h (1 Bft) 97,38 %
© 2019 W. Hausmann